GFSMW_prec_cloud_003.txt.gz
Cloud_Cover
0 0 0 0 5 4 1 5 5 0 9 5 96 83 92 29 36 50 74 70 13 25 100 5 4 1 0 0 5 5 5 5 5 5 5 27 66 5 6 25 19 6 48
0 0 0 0 13 60 26 98 12 55 13 2 20 42 95 77 93 83 88 38 14 54 5 6 0 0 3 5 5 3 2 4 5 5 4 4 34 10 38 42 52 61 68
0 0 0 0 0 5 40 99 100 81 20 27 10 89 35 8 27 64 96 86 52 82 62 6 6 5 5 5 5 3 0 4 11 5 5 4 7 10 64 96 81 92 100
0 0 0 0 0 0 0 5 47 98 83 57 56 8 5 17 92 76 6 27 6 5 19 15 9 5 2 5 5 5 10 34 22 17 12 5 5 23 19 16 98 99 100
0 0 0 0 0 0 0 4 5 5 24 74 8 51 36 7 6 15 16 6 6 6 6 8 38 100 100 98 91 19 5 0 0 5 99 100 100 100 100 89 6 5 5
0 1 0 0 0 4 5 5 5 5 36 89 100 100 100 100 100 98 82 84 92 100 100 100 100 87 100 100 100 98 5 5 5 10 100 92 100 54 100 20 4 5 3
0 0 0 5 3 3 5 92 100 100 3 5 5 5 5 5 5 20 92 96 72 52 71 43 38 70 47 22 10 4 5 5 5 23 2 5 10 100 100 100 93 40 4
5 5 5 15 59 51 84 52 100 100 100 68 60 68 87 90 98 99 100 98 98 93 72 6 0 0 0 4 8 15 6 97 82 44 68 84 15 100 96 67 17 88 54
5 3 3 5 83 27 68 32 31 13 67 95 90 78 99 100 58 95 100 31 8 83 7 29 2 2 38 9 6 10 1 8 5 5 5 5 65 95 100 100 100 100 82
15 39 5 2 4 5 5 5 5 5 65 5 40 85 100 100 100 99 6 5 8 61 98 18 0 0 0 0 0 0 0 0 3 5 5 5 49 67 100 100 100 100 99
5 5 3 0 1 5 6 5 5 14 5 38 93 54 44 19 6 5 5 5 2 1 0 0 0 0 3 0 0 0 0 0 1 5 5 36 84 57 59 100 100 100 100
15 5 2 5 56 90 9 5 5 5 5 10 48 95 93 36 50 29 5 5 1 0 0 0 0 0 0 0 0 3 5 3 5 5 5 5 1 3 19 66 100 100 100
5 5 50 53 21 37 77 6 9 55 77 100 86 13 5 41 100 100 99 100 100 100 83 0 0 0 0 4 3 5 2 5 5 9 5 5 0 0 1 76 54 99 56
5 5 5 7 8 22 8 74 100 100 72 5 5 5 4 6 99 73 27 90 100 92 1 1 0 0 2 5 5 0 0 4 5 4 0 0 0 0 0 0 48 86 91
5 5 5 5 12 36 36 42 80 15 5 0 0 0 5 47 40 87 49 100 100 100 100 86 0 5 5 4 5 31 8 5 5 5 4 0 1 5 3 12 34 54 84
5 5 5 5 5 5 65 18 5 5 5 4 0 0 0 5 5 79 100 100 94 33 100 35 5 0 5 5 84 36 74 88 78 4 5 5 5 69 100 92 100 100 78
33 5 5 5 5 6 5 5 5 3 3 5 1 0 2 6 54 46 100 100 100 91 100 7 16 5 5 52 75 76 30 5 5 13 5 5 92 76 85 100 100 100 100
5 5 5 5 5 5 5 5 5 5 5 5 0 2 0 0 5 40 100 100 100 100 1 100 6 5 17 24 4 5 7 77 96 94 55 22 80 100 100 82 26 19 14
5 5 5 5 14 21 37 6 5 5 3 0 4 1 3 5 9 85 100 100 78 6 100 64 5 0 0 2 5 34 53 58 71 72 89 91 30 100 100 100 83 84 7
5 5 5 5 5 5 5 5 5 5 3 2 0 0 0 36 99 70 84 100 95 100 50 5 0 4 5 5 10 71 100 82 100 100 100 100 100 100 100 100 98 80 26
5 5 5 5 5 5 5 4 2 5 2 3 0 0 3 5 9 50 100 100 94 52 5 5 13 79 4 5 64 94 100 100 100 100 100 100 100 100 100 100 95 89 92
28 6 5 5 5 5 5 5 4 3 5 0 2 5 5 86 77 100 100 99 42 5 21 5 28 5 5 2 14 47 37 90 99 100 100 100 100 100 100 100 100 100 100
5 5 5 5 5 5 5 5 5 30 2 0 0 5 35 88 100 99 94 12 10 91 5 5 5 5 5 5 3 5 10 76 100 100 100 100 100 100 100 100 100 100 100
5 4 5 4 5 5 5 5 6 22 3 0 0 0 4 3 14 66 5 5 6 5 5 5 5 9 5 5 7 54 75 99 100 100 100 100 100 100 100 100 100 100 100
5 5 5 6 4 5 5 5 37 5 5 5 4 0 3 3 2 5 14 48 44 22 10 5 6 36 43 18 100 100 100 100 100 100 100 100 100 100 100 100 100 100 100
5 5 5 5 5 5 5 5 2 65 29 5 5 5 5 5 38 98 100 59 5 12 5 5 42 23 15 12 100 98 100 100 96 100 100 100 100 100 100 95 100 100 100

GFSMW_prec_cloud_006.txt.gz
Cloud_Cover
14 19 23 5 2 5 44 42 100 100 44 5 5 4 5 5 6 98 66 78 75 36 95 26 5 5 2 0 0 2 0 3 5 5 5 62 99 100 100 80 90 79 51
5 2 2 27 96 14 11 79 58 5 5 5 3 4 5 45 80 73 75 76 90 28 16 21 4 2 2 0 0 0 0 0 1 0 0 2 7 10 43 22 90 80 98
35 68 53 32 0 0 0 0 5 5 5 6 31 42 76 89 99 56 5 93 68 8 5 5 0 1 3 5 5 5 8 5 3 2 4 0 0 3 9 5 5 9 41
100 99 80 73 0 0 0 0 1 4 5 5 39 100 100 95 8 5 5 5 5 5 5 5 5 11 15 5 24 51 63 92 60 60 49 11 9 2 60 5 5 5 4
60 100 100 97 0 0 0 0 3 5 5 14 55 52 58 5 5 5 5 7 61 16 5 80 100 100 100 5 5 5 5 29 81 61 3 4 5 5 5 10 4 3 0
2 2 1 2 1 0 0 5 0 7 30 26 88 91 44 17 11 44 73 31 35 47 68 76 90 95 39 63 41 2 2 5 21 15 5 14 98 46 30 12 7 5 5
46 88 5 5 0 5 38 86 49 14 5 4 1 5 5 26 9 57 98 100 45 100 47 100 99 61 7 0 0 5 5 66 99 99 99 99 87 100 48 82 55 20 2
98 10 0 0 0 3 21 66 96 67 40 19 29 12 49 100 100 100 85 100 100 100 37 11 5 78 12 0 3 0 0 0 1 0 2 9 8 67 99 100 100 100 100
4 5 0 5 5 5 4 5 74 92 53 23 8 98 100 100 99 96 3 2 1 5 5 7 6 1 0 0 0 0 0 0 0 0 0 5 5 9 80 100 100 100 100
5 5 5 5 3 7 82 100 90 52 75 76 5 10 4 2 1 0 3 69 56 53 96 96 97 31 20 71 12 99 0 0 0 0 0 0 1 30 77 100 97 100 100
6 73 18 8 5 29 23 7 5 4 5 5 2 1 9 22 28 6 5 6 31 100 100 100 100 100 100 60 83 9 0 0 0 4 4 5 5 4 0 7 31 50 94
59 94 100 6 5 5 5 9 5 4 3 5 5 19 6 5 5 5 10 10 17 79 100 100 100 100 100 12 0 0 5 47 65 16 7 5 5 0 0 0 0 0 6
82 53 26 70 5 5 5 5 5 5 5 5 5 5 5 0 0 0 4 8 69 99 100 95 100 100 100 100 62 1 5 5 5 5 5 5 4 0 0 0 0 0 0
87 74 5 5 5 5 5 6 48 90 16 5 5 5 0 0 0 28 88 100 100 93 100 100 100 100 100 28 2 5 5 5 14 80 87 31 3 0 2 38 17 41 4
98 98 96 26 5 20 36 24 7 5 5 5 5 5 0 0 0 7 5 84 100 60 98 100 100 100 6 5 5 5 6 94 38 2 0 4 4 5 48 100 100 100 99
100 100 32 5 6 12 56 5 5 5 5 5 0 0 0 0 0 0 5 40 85 97 100 100 98 2 3 5 5 5 5 0 5 5 5 5 5 5 5 14 89 100 100
100 94 17 21 33 7 14 7 10 5 1 1 2 5 5 0 0 2 11 24 55 92 100 99 26 5 5 3 5 5 5 17 5 5 5 5 35 100 22 5 43 100 90
62 86 44 70 71 22 5 5 4 5 5 5 3 5 0 1 0 38 86 100 99 90 95 10 5 5 3 4 5 28 85 90 68 5 5 6 99 100 91 43 86 93 100
44 24 8 9 5 5 5 5 24 14 5 5 5 0 0 4 0 11 20 81 17 71 89 100 54 5 5 5 18 97 95 43 5 48 53 94 100 100 100 100 85 82 99
5 5 5 6 10 6 21 16 10 5 5 5 5 3 1 1 5 5 45 44 64 81 100 100 5 15 6 5 9 92 27 10 31 38 99 100 100 100 100 100 100 95 97
5 5 5 5 12 26 6 5 5 5 3 5 5 5 0 5 54 94 46 6 96 100 100 27 77 29 4 5 5 60 100 99 84 54 94 100 100 100 100 100 100 100 100
11 9 66 89 62 26 5 5 7 1 34 5 5 0 3 6 100 97 85 76 74 72 47 26 22 5 5 1 4 6 100 100 80 100 94 100 100 100 100 100 100 100 100
9 68 77 70 6 5 5 5 4 42 20 5 5 4 0 3 9 13 6 5 5 5 11 5 19 5 12 5 1 5 12 7 80 94 100 100 100 100 100 100 100 100 100
46 87 89 32 6 5 5 5 33 34 4 5 5 5 2 2 5 4 5 5 31 78 8 5 5 60 5 5 5 13 26 77 48 82 90 100 100 100 100 100 100 100 100
94 75 41 18 5 4 5 5 96 8 7 92 78 82 26 5 5 5 24 97 99 81 5 5 5 31 20 18 58 100 22 85 31 75 71 97 100 100 100 100 100 100 100
100 97 46 5 5 5 36 32 68 44 89 100 100 99 100 12 5 18 63 98 99 33 5 5 5 56 5 5 95 70 35 5 14 31 72 89 100 100 100 100 94 100 100

GFSMW_prec_cloud_009.txt.gz
Cloud_Cover
5 5 5 36 5 5 5 6 6 61 65 43 14 4 5 5 5 37 43 70 100 100 65 5 5 5 2 0 0 0 0 0 0 0 5 5 5 5 7 41 74 85 96
53 95 84 100 15 1 3 50 4 9 51 1 0 2 18 50 70 96 98 99 59 5 5 5 4 1 0 0 4 5 5 5 4 5 1 4 5 5 5 5 8 31 30
48 100 93 44 5 40 14 27 2 0 5 0 8 4 5 6 69 29 11 5 4 2 0 0 0 2 3 5 5 5 5 5 5 5 4 0 2 3 2 0 0 0 0
87 20 14 5 88 44 5 1 0 0 0 2 5 5 84 99 38 5 0 0 0 0 0 5 5 5 6 76 44 30 5 5 17 4 0 0 0 14 7 5 4 0 0
95 84 100 99 56 46 5 0 0 0 5 6 90 100 97 5 0 0 2 5 6 5 5 6 13 99 100 72 35 16 0 0 4 4 6 6 43 67 98 73 14 6 1
68 9 99 81 100 82 7 0 2 5 5 22 4 1 0 1 2 5 7 34 75 41 70 100 68 69 83 86 96 95 0 0 1 2 3 9 82 100 100 100 100 100 31
97 100 100 22 17 2 0 4 74 44 3 0 0 1 3 6 48 50 36 87 98 88 72 14 4 5 6 5 4 5 4 4 6 0 3 4 6 19 24 87 88 100 32
100 100 72 5 3 0 0 0 0 0 5 5 5 4 5 6 13 97 95 86 40 4 5 14 92 84 100 99 100 100 82 10 75 45 0 0 0 4 8 28 100 19 6
0 0 1 5 5 5 5 0 2 5 5 5 5 5 5 61 74 69 11 4 0 2 48 98 99 100 100 100 100 97 100 58 1 75 66 0 0 0 0 1 28 89 69
2 5 5 5 5 5 5 5 5 16 5 5 5 5 5 5 5 5 0 0 4 50 41 60 86 100 77 96 100 90 91 69 88 84 81 5 0 4 2 5 5 4 16
57 53 43 63 51 92 86 88 92 76 5 5 10 6 5 2 3 3 0 0 33 100 100 62 81 96 100 100 100 99 100 100 78 76 5 5 5 5 5 5 5 3 5
81 90 90 100 100 93 100 100 76 69 76 5 5 0 5 4 0 0 0 18 100 99 98 85 76 92 100 72 17 46 100 100 86 5 55 70 5 5 5 5 0 0 0
5 43 100 100 98 61 100 100 100 78 5 5 5 5 0 0 0 0 0 0 0 1 43 12 5 5 89 74 97 99 94 6 5 98 91 57 3 0 0 0 5 17 19
7 75 80 99 78 100 100 87 43 5 5 3 1 0 0 0 0 0 0 0 3 22 10 13 5 29 100 100 5 4 5 5 53 76 5 2 3 5 1 5 11 74 100
22 83 86 74 100 100 99 71 6 5 5 5 0 5 5 5 3 0 0 5 77 92 5 5 68 98 58 8 4 5 5 5 5 4 5 5 5 5 5 26 41 30 95
100 100 100 100 98 40 5 5 5 5 5 5 5 5 5 5 0 0 5 5 82 79 92 95 100 98 5 5 5 5 5 5 40 88 35 19 5 5 39 89 100 100 100
100 100 99 31 61 5 5 5 5 5 11 12 27 6 5 5 0 0 5 5 28 97 93 56 5 62 8 40 5 6 72 98 86 98 100 36 7 19 51 88 100 100 100
95 73 6 16 5 5 5 5 37 100 88 56 75 59 5 5 0 0 5 5 41 5 5 5 24 45 98 5 5 26 68 28 15 5 5 60 79 96 99 100 100 100 100
23 73 5 5 5 6 25 74 100 82 80 97 34 2 0 0 2 5 5 31 16 5 5 93 100 100 7 5 8 5 50 16 5 5 5 95 100 99 100 100 100 100 100
100 53 5 5 5 31 20 100 100 99 99 15 0 4 2 5 2 5 5 61 86 72 81 100 99 96 64 5 5 13 59 32 18 5 6 59 100 100 100 100 100 100 100
64 5 5 5 42 92 100 87 98 99 14 3 4 5 5 5 2 5 7 75 75 64 30 65 84 33 4 5 5 5 5 44 91 81 60 82 100 100 100 100 100 100 100
41 6 7 69 100 92 72 79 59 13 2 5 5 13 9 5 1 5 5 5 5 85 70 80 78 38 5 2 4 5 73 99 88 100 76 100 100 100 100 100 100 100 100
36 5 59 100 76 26 46 5 20 2 5 5 5 92 100 49 5 0 2 5 5 33 100 100 49 5 5 5 5 5 7 5 61 16 99 87 100 100 100 100 100 100 100
22 54 92 80 47 56 39 15 5 4 5 86 100 100 100 80 47 5 5 5 84 100 100 94 5 53 7 9 5 71 33 8 8 7 50 31 100 100 100 100 100 100 100
64 85 100 38 24 57 8 5 4 5 46 100 100 90 87 99 60 9 30 65 74 82 94 5 5 65 43 5 33 95 21 5 16 22 59 74 96 100 100 100 100 100 100
100 89 88 34 74 6 5 5 32 24 99 100 94 82 100 100 92 62 38 52 74 96 68 61 57 50 8 5 33 68 20 5 4 20 76 91 74 100 100 100 100 100 97

GFSMW_prec_cloud_015.txt.gz
Cloud_Cover
94 64 21 27 82 100 100 100 67 86 84 77 91 100 100 100 99 38 0 0 0 5 5 5 5 0 0 0 0 0 5 5 5 5 5 2 0 3 3 5 5 3 3
56 25 56 79 48 42 87 79 20 30 20 5 4 1 2 1 0 0 0 1 4 2 0 0 0 2 5 5 5 5 0 4 4 2 0 0 5 5 4 0 0 0 0
5 5 21 18 20 6 5 5 1 3 5 2 3 3 0 0 0 0 0 0 0 0 0 3 4 5 5 5 2 0 0 0 0 0 0 0 0 5 0 0 1 4 5
6 0 5 5 92 52 5 39 59 79 13 52 34 4 0 0 0 0 0 0 0 0 0 0 3 2 0 0 0 3 0 0 1 1 5 3 9 5 0 4 5 5 5
0 2 5 5 36 75 82 88 100 100 97 0 0 0 0 0 0 0 0 0 0 0 5 5 5 3 0 0 0 1 8 5 73 98 98 99 100 100 68 3 4 5 5
5 19 5 55 19 87 5 0 1 3 5 5 4 2 5 3 3 5 5 5 1 0 0 0 0 0 2 4 43 87 93 70 56 35 17 76 86 86 96 100 25 2 0
5 79 76 76 20 2 4 4 5 5 5 5 5 5 5 39 5 15 4 0 0 0 0 0 3 5 5 35 100 94 53 58 23 5 5 16 4 2 5 5 5 5 1
5 85 92 95 3 4 5 5 5 5 22 99 50 9 44 77 79 48 3 0 4 5 5 5 13 5 5 62 100 100 10 3 4 3 5 5 1 0 2 5 5 5 5
5 53 38 0 4 0 5 5 5 17 56 49 76 24 43 80 64 21 5 5 5 6 35 9 5 4 90 26 7 6 0 0 0 0 0 0 0 0 0 5 5 90 80
6 12 2 1 0 5 5 5 34 80 81 70 64 92 94 89 56 5 5 13 46 32 5 5 5 85 88 5 5 4 5 4 8 4 0 1 0 2 5 5 35 99 96
0 2 5 5 5 5 38 9 98 99 28 100 100 100 66 5 5 22 51 14 26 5 5 11 90 97 87 34 97 83 88 99 10 4 3 0 5 5 6 42 66 61 72
0 5 5 17 67 74 53 92 94 24 82 100 100 93 19 48 55 16 5 2 5 3 1 10 87 81 5 100 17 80 100 96 40 7 0 2 5 5 68 96 97 99 100
5 5 87 100 71 100 100 100 87 100 100 98 26 36 13 5 5 5 5 5 2 5 5 5 5 68 100 93 100 100 100 100 67 4 5 5 5 41 99 100 100 100 100
23 56 100 100 100 100 84 100 100 100 23 5 5 5 5 5 19 22 6 27 34 39 5 5 65 96 90 100 100 100 97 9 5 5 5 13 89 89 92 100 100 100 100
100 98 88 100 74 90 97 69 81 5 5 5 5 5 5 52 68 30 96 99 57 13 5 6 40 100 97 100 100 74 7 39 75 5 5 5 36 63 84 100 100 100 100
58 75 98 100 100 61 41 5 5 5 5 8 13 25 87 93 100 100 100 100 36 2 5 5 6 8 45 5 22 92 98 49 5 2 5 5 5 59 100 100 100 95 100
6 50 79 100 100 97 8 60 92 20 40 60 76 100 100 100 100 99 82 5 2 0 5 11 75 78 89 96 98 16 5 5 4 5 5 7 86 100 100 100 87 100 96
56 50 98 100 99 48 94 99 23 53 98 100 100 100 100 93 54 78 53 0 0 2 5 6 6 15 89 97 32 5 1 0 5 5 19 99 100 100 99 100 100 100 100
95 100 100 99 100 71 92 86 96 100 100 100 100 100 100 70 68 38 6 5 4 5 5 5 5 5 8 5 5 4 5 5 5 28 94 100 100 100 100 100 100 100 100
100 100 100 100 100 93 100 100 100 100 100 100 100 96 38 50 100 98 5 5 5 3 5 5 5 5 5 5 5 2 5 25 29 43 24 100 100 100 100 100 100 100 100
100 100 100 99 100 100 100 100 100 100 100 93 89 44 53 100 52 5 5 5 5 5 5 5 5 5 5 5 5 5 47 74 64 5 5 82 100 92 88 94 100 100 100
100 100 100 100 100 100 100 100 82 100 96 96 42 54 100 46 5 5 5 5 5 5 5 5 5 28 8 5 5 5 5 14 67 11 5 59 54 12 53 98 100 100 99
100 100 100 100 100 100 98 98 99 96 91 72 100 94 10 5 5 9 5 9 51 5 5 55 84 72 5 5 5 5 5 11 6 33 5 5 5 5 30 84 79 100 98
100 100 100 100 100 96 91 83 100 98 99 100 100 75 86 35 51 51 16 48 58 5 18 5 8 7 5 5 5 5 72 16 7 5 5 5 5 4 5 5 21 100 100
100 100 100 100 100 100 100 100 98 100 100 100 27 86 100 100 100 100 78 70 54 5 5 5 5 8 25 34 5 5 89 91 49 5 5 5 5 5 5 5 58 85 93
100 100 100 100 100 100 100 100 98 92 85 100 5 86 85 85 94 96 81 68 68 56 5 5 5 5 19 50 5 5 61 5 5 5 5 5 5 5 5 5 5 72 100

GFSMW_prec_cloud_021.txt.gz
Cloud_Cover
100 97 100 31 13 7 52 96 100 100 54 88 100 100 100 40 22 4 0 0 0 0 0 0 0 0 0 0 0 2 0 0 0 2 5 5 0 1 5 7 74 89 48
32 16 70 86 32 18 80 78 87 78 91 99 56 25 73 7 7 0 0 0 0 5 5 5 4 5 3 5 5 0 4 2 0 5 5 5 5 5 4 5 5 5 72
5 5 5 5 35 97 100 98 98 54 80 33 5 12 5 2 0 0 0 3 5 5 4 2 5 5 5 4 0 4 5 5 5 5 5 5 5 5 4 5 5 5 68
5 8 26 98 88 63 41 18 18 12 8 5 2 0 8 94 6 5 5 5 5 2 5 5 5 5 0 4 6 5 4 5 5 5 5 34 58 99 31 5 5 30 23
76 47 52 5 5 5 5 6 8 2 0 0 0 0 3 5 5 5 5 5 5 9 72 5 5 3 0 5 5 5 5 5 11 60 40 100 91 76 88 6 32 30 52
1 1 0 2 5 5 5 5 1 0 0 0 0 0 4 5 5 42 37 19 85 11 17 71 39 0 5 5 5 8 28 8 76 67 37 73 89 68 95 70 33 84 20
0 0 0 0 5 5 5 5 2 0 0 0 5 5 5 37 48 100 76 98 42 14 84 19 5 2 3 5 5 35 5 81 94 75 91 99 98 93 98 100 100 94 33
0 0 0 0 0 5 5 5 5 5 4 3 5 5 83 76 100 80 89 6 5 61 5 4 5 5 73 56 47 21 51 89 92 26 97 72 91 99 100 100 95 40 18
0 0 0 1 5 5 5 5 0 0 4 6 25 90 87 100 72 5 5 5 5 5 5 5 14 49 45 23 50 66 48 84 45 90 97 75 87 100 99 100 100 92 37
0 4 5 5 5 5 5 5 5 6 57 92 53 44 100 100 100 97 24 5 5 5 5 7 22 58 11 51 78 19 58 83 13 100 100 95 92 68 100 100 100 98 45
5 5 17 17 5 5 5 5 58 25 7 85 17 98 93 100 98 46 7 5 5 5 45 51 41 6 5 48 43 44 88 77 72 100 95 71 97 100 100 100 100 100 77
10 11 5 5 5 5 24 55 13 50 20 100 65 80 100 97 95 25 5 5 5 59 44 16 47 45 89 53 97 57 11 22 93 100 83 100 100 96 92 98 92 91 61
5 21 6 5 19 55 6 18 41 92 97 53 94 100 100 100 68 11 92 39 28 51 25 7 14 43 74 65 100 100 100 98 100 100 100 97 83 96 34 12 5 5 30
0 26 39 90 100 6 5 24 96 91 96 84 100 100 95 89 54 100 99 39 70 86 50 77 48 96 100 100 93 56 100 100 100 92 99 100 100 20 5 4 5 49 100
5 5 18 100 100 18 74 78 98 98 96 100 100 100 82 96 98 92 63 83 98 100 100 40 10 95 88 74 36 24 87 98 95 96 87 95 7 0 0 5 63 100 100
5 6 98 28 5 5 18 82 96 88 100 100 100 100 100 100 100 87 86 100 100 92 6 13 88 100 69 98 86 0 5 61 100 100 62 5 23 77 5 87 95 52 100
7 8 5 5 11 35 66 92 98 100 100 100 100 99 97 100 100 96 97 86 82 56 70 92 50 83 98 23 0 4 5 25 72 50 20 6 5 66 69 82 100 99 75
62 5 5 32 52 42 70 88 100 100 100 100 100 100 100 100 100 100 100 100 90 87 98 100 99 75 86 35 1 2 0 48 82 64 60 64 76 72 5 7 64 95 100
5 5 28 63 83 34 39 26 100 96 100 100 100 95 100 100 100 100 100 100 100 72 100 100 98 65 92 19 4 5 5 96 98 99 91 47 5 35 5 7 71 70 89
22 41 39 74 5 5 14 88 100 100 100 100 100 100 100 100 100 100 100 100 93 100 100 100 87 100 13 5 5 5 6 89 99 98 97 100 5 4 5 5 16 66 80
26 80 23 19 40 78 99 100 100 100 100 100 100 100 100 100 100 100 100 100 100 100 100 100 100 93 54 94 23 5 5 81 70 70 86 100 26 3 5 5 33 77 5
99 96 67 58 9 92 98 100 100 100 100 100 100 100 100 100 100 100 100 100 100 71 100 100 20 96 90 12 12 5 5 5 17 91 97 92 7 3 5 4 4 4 19
56 83 62 27 86 100 100 100 100 100 100 100 100 100 100 100 100 100 100 100 93 100 99 70 99 100 99 87 66 5 5 5 25 86 48 5 5 5 5 57 5 7 100
67 73 94 90 100 100 100 100 100 100 100 100 100 100 100 100 100 100 100 100 100 92 60 100 98 100 100 99 95 37 30 15 37 74 97 30 13 21 22 80 100 100 100
72 84 85 100 100 100 100 100 100 100 100 100 100 100 100 100 100 100 91 99 88 88 100 88 95 92 36 50 14 40 96 93 97 11 31 99 100 89 100 100 100 100 100
100 100 100 100 100 100 100 100 100 100 100 100 100 100 100 100 100 100 100 100 100 100 37 5 79 64 8 5 5 5 5 5 5 52 100 99 100 100 100 100 100 100 100

GFSMW_prec_cloud_024.txt.gz
Cloud_Cover
95 75 100 100 100 100 97 100 58 100 98 67 88 100 23 5 5 5 5 5 1 0 0 0 1 4 0 3 0 5 0 0 0 0 0 0 0 0 0 0 1 1 76
97 70 28 32 26 64 9 75 47 100 83 26 96 51 24 8 4 0 0 0 5 4 1 3 4 1 5 5 5 4 0 0 0 0 0 0 3 0 0 1 0 5 45
35 12 8 5 39 91 84 49 26 60 5 39 99 100 99 0 0 0 0 5 5 5 5 4 5 5 5 5 4 0 0 1 2 0 2 1 4 5 4 2 0 1 4
5 5 15 76 86 77 99 48 75 30 100 71 0 0 0 0 0 7 0 4 17 79 41 23 5 1 5 5 1 0 2 0 0 3 1 5 5 5 5 4 5 5 5
4 5 5 54 100 82 19 100 64 52 5 4 0 0 0 0 0 0 5 16 83 86 5 36 5 0 0 0 0 0 5 5 6 5 5 5 5 5 5 5 5 0 0
6 5 48 100 77 49 82 11 5 5 5 2 0 0 0 0 1 5 36 66 91 65 24 4 1 4 4 5 0 5 5 44 18 3 39 28 13 5 51 3 3 0 1
1 46 16 23 0 4 0 0 0 3 0 0 2 5 5 5 5 5 68 100 100 70 12 25 24 5 5 5 5 5 5 10 3 52 99 12 97 33 5 5 2 17 0
10 0 4 1 0 0 0 0 0 2 5 5 28 22 24 5 5 71 77 100 100 99 98 5 5 48 59 27 33 51 8 5 5 52 100 99 38 70 97 7 5 3 0
0 0 0 0 0 0 0 0 5 5 5 24 40 5 5 56 72 92 80 84 90 97 5 5 12 88 50 18 44 10 10 40 33 79 94 100 93 89 100 52 86 95 12
0 0 0 0 0 0 0 4 5 3 81 90 5 32 54 53 100 100 86 98 97 43 12 27 100 100 100 100 100 100 13 33 10 64 100 100 100 100 85 35 12 6 100
0 0 0 0 0 0 3 2 4 47 100 5 5 5 64 97 100 100 98 100 44 5 83 100 100 100 100 100 64 17 5 14 17 79 58 100 100 92 5 5 6 47 19
0 0 3 3 3 5 5 5 55 100 100 57 24 14 93 100 100 99 99 19 5 71 76 90 99 100 63 55 5 52 100 100 98 98 83 86 95 6 45 91 5 5 0
0 3 8 10 5 4 5 5 100 89 86 5 16 85 98 100 100 79 76 56 7 9 89 99 33 5 5 98 11 5 100 33 75 28 5 10 83 97 5 5 0 0 0
5 4 92 23 5 5 5 5 5 5 5 5 87 100 100 99 74 80 52 69 90 44 48 5 23 66 79 92 86 64 89 97 8 21 15 30 79 5 5 0 0 0 2
4 5 72 45 100 92 31 26 49 5 5 38 100 100 100 83 98 77 98 99 96 68 89 86 100 100 83 100 100 93 100 93 15 63 14 57 49 5 0 0 1 5 5
5 5 5 5 29 22 26 33 80 12 5 100 100 100 100 100 100 100 100 93 99 100 83 95 99 95 94 100 100 100 100 95 4 5 36 5 2 5 5 5 5 5 5
5 5 5 77 89 5 30 46 39 12 44 100 100 100 100 83 100 100 85 100 100 100 100 94 100 100 100 100 100 100 100 6 5 5 5 5 5 5 5 4 4 0 2
5 44 98 13 5 5 85 79 50 38 90 100 100 100 100 100 100 100 100 100 100 100 100 100 100 100 100 100 100 100 100 94 5 5 5 5 62 5 0 0 0 3 3
99 100 32 5 5 5 92 76 89 99 100 100 100 99 100 100 100 100 100 100 100 100 100 100 100 100 100 100 100 42 22 5 8 5 5 52 84 5 3 0 4 5 2
95 5 5 6 9 89 98 66 77 68 99 100 100 94 100 100 100 100 100 100 100 100 100 100 100 100 91 100 100 13 5 54 5 5 5 5 5 5 5 4 5 5 5
5 24 22 37 80 53 36 72 100 81 76 100 100 100 100 100 100 100 100 100 100 100 100 100 100 100 100 100 47 4 5 5 5 5 5 93 56 7 5 2 4 4 0
17 58 98 89 34 70 99 94 83 100 100 100 100 100 100 100 100 100 100 100 100 100 100 100 100 100 5 5 39 48 5 4 5 5 5 5 5 1 5 1 2 5 5
85 81 79 61 98 76 99 100 98 73 100 100 100 100 100 100 100 100 100 100 100 100 93 10 22 70 93 98 92 99 19 5 5 5 5 5 5 5 5 5 51 50 5
86 74 81 95 100 67 90 100 100 100 100 100 100 100 100 100 100 100 100 100 100 100 100 90 100 100 90 100 98 7 5 5 5 5 29 66 5 18 5 8 68 60 85
44 80 96 99 100 100 100 100 100 100 100 100 100 100 100 100 100 100 100 100 98 67 100 98 100 100 100 100 100 80 40 64 95 92 48 6 23 92 70 41 65 100 93
100 100 96 81 59 79 70 70 74 93 100 100 100 100 100 100 100 100 100 100 99 93 67 9 16 67 100 100 98 100 84 7 9 5 5 48 38 64 88 22 16 23 5

GFSMW_prec_cloud_030.txt.gz
Cloud_Cover
100 100 100 100 100 100 93 52 80 90 95 100 100 100 100 100 100 100 100 100 100 100 92 9 5 23 43 26 83 73 62 0 2 0 0 0 0 0 0 0 2 2 0
91 100 100 99 5 0 3 4 5 27 100 100 96 65 46 35 80 62 42 19 5 5 22 40 77 24 17 69 14 78 15 78 46 2 0 0 0 0 4 5 5 5 4
41 89 36 5 5 5 5 5 72 92 100 26 38 23 26 10 5 5 5 16 51 44 6 73 44 25 5 49 67 20 6 12 0 0 1 1 0 0 5 7 5 4 2
7 11 37 84 96 63 5 62 100 100 79 96 7 7 6 20 8 9 6 2 1 5 5 5 5 5 5 4 4 5 46 5 0 1 4 5 5 5 5 4 5 5 0
0 7 39 53 11 6 13 4 100 88 100 98 37 15 80 5 5 1 0 5 5 8 76 96 85 5 5 5 7 92 74 0 0 5 5 17 56 92 12 5 5 5 2
94 47 3 2 11 3 5 27 17 22 78 10 4 80 97 15 5 5 5 14 63 54 94 83 62 95 38 67 49 6 5 0 3 5 14 25 36 68 5 5 5 5 7
70 47 56 22 47 29 29 28 0 8 0 10 22 87 65 35 70 72 58 99 90 96 100 100 100 99 84 78 5 5 5 5 8 35 5 8 11 94 91 77 43 93 72
12 100 76 11 5 22 48 34 4 4 0 2 6 20 94 100 98 100 97 100 100 100 100 100 100 67 80 76 43 5 5 87 18 5 76 94 100 92 71 39 97 84 70
5 5 3 5 5 30 4 5 12 14 37 59 99 100 100 100 83 100 100 100 100 100 100 100 100 70 92 46 65 7 56 61 5 19 90 100 100 100 100 100 100 100 64
2 4 5 9 68 0 3 16 2 0 44 55 88 99 100 100 100 99 100 100 100 100 100 100 56 68 100 57 40 87 88 77 28 100 100 83 69 77 100 100 100 100 100
0 0 31 66 1 0 0 0 3 5 5 2 59 97 100 100 100 100 100 96 100 99 100 100 79 99 70 81 80 100 76 100 82 99 99 90 100 100 100 100 100 100 100
0 0 0 4 5 0 0 4 5 4 0 2 5 71 74 72 78 98 94 82 88 97 62 67 18 76 87 99 53 38 67 90 100 100 94 92 78 87 100 100 100 100 91
0 2 2 0 0 2 1 3 6 12 6 29 100 94 44 90 42 54 60 40 24 15 19 31 5 41 99 100 98 78 41 73 94 98 100 100 100 100 100 99 70 5 5
5 2 3 4 5 6 10 65 32 83 99 78 67 36 100 97 99 15 57 6 5 5 50 97 80 99 100 100 97 94 98 100 92 100 100 100 98 65 9 5 5 4 0
0 0 3 5 5 13 33 86 96 68 15 5 34 100 100 100 93 100 100 61 26 87 79 79 100 96 85 74 95 89 71 100 100 100 100 72 4 5 5 2 1 4 5
4 5 5 2 5 6 33 5 3 4 5 83 100 100 100 100 100 100 100 98 97 100 100 100 96 93 84 87 98 100 100 100 100 98 5 5 0 0 0 4 5 5 4
4 4 4 2 0 0 0 0 5 5 44 89 67 98 100 100 100 100 100 100 100 100 100 91 100 99 100 100 100 100 100 93 5 5 5 5 0 0 1 5 5 5 0
5 5 4 4 5 2 5 34 21 61 75 100 100 82 74 18 78 100 100 100 100 100 100 100 100 100 100 100 100 100 83 70 85 82 21 5 0 0 5 5 5 3 3
8 5 5 5 5 11 97 100 20 5 30 98 99 100 100 100 100 100 100 100 100 100 100 100 100 100 100 59 62 80 46 40 5 62 7 0 1 5 5 5 5 5 5
5 4 5 5 46 100 100 98 17 5 7 28 97 100 100 100 100 100 100 100 100 99 99 74 26 5 5 5 10 70 81 6 5 5 2 3 4 1 4 5 5 5 5
9 6 5 10 100 83 6 64 62 100 100 100 100 100 100 100 100 100 100 100 62 10 4 0 0 3 5 7 82 90 5 42 8 5 5 5 1 4 5 5 5 9 5
43 20 12 92 95 87 71 100 100 100 100 100 100 100 100 100 100 100 100 75 2 4 0 0 4 1 4 40 100 92 28 63 14 5 19 5 5 5 9 32 8 6 5
36 17 70 100 100 100 100 100 100 100 100 100 100 100 100 100 98 100 61 4 5 2 5 5 5 4 0 5 47 90 100 30 5 74 86 73 48 5 34 56 9 22 48
11 69 100 100 100 100 98 64 100 100 100 100 100 100 99 96 100 46 5 5 5 5 5 5 5 5 5 6 15 39 100 97 96 81 100 85 99 6 44 53 8 93 88
100 100 100 100 100 98 23 87 100 100 100 100 100 76 98 100 90 5 5 5 1 5 5 5 5 5 5 5 5 64 51 76 100 100 100 89 96 72 60 66 60 100 85
100 100 100 97 66 7 51 76 82 100 100 100 62 96 83 35 10 5 3 1 5 5 5 5 5 5 4 5 5 90 100 95 100 100 86 84 88 100 61 88 83 90 71

GFSMW_prec_cloud_033.txt.gz
Cloud_Cover
100 100 100 100 100 100 100 100 100 100 100 100 100 100 100 100 100 100 100 100 100 100 100 100 87 58 85 75 34 6 4 5 5 99 4 5 3 0 0 0 0 0 0
100 100 100 100 100 100 100 100 100 100 100 100 100 80 84 91 96 100 100 100 95 72 76 46 62 50 17 6 7 0 0 0 1 8 60 77 12 0 0 0 0 0 0
7 6 5 12 51 72 72 100 100 98 13 11 9 38 53 36 72 38 5 8 6 7 18 8 5 2 0 4 5 2 2 5 70 53 49 3 1 3 5 5 5 5 29
59 42 5 24 5 5 14 12 15 63 68 83 93 92 94 21 47 62 5 5 5 6 5 5 5 5 6 33 5 5 5 5 3 1 1 5 5 10 6 5 5 5 5
100 100 100 21 0 8 5 5 27 100 100 100 100 100 100 100 90 42 5 5 6 5 17 28 46 8 98 96 68 31 5 5 5 5 5 5 5 7 5 5 33 77 68
40 22 100 100 20 7 5 18 66 100 100 98 88 63 51 13 5 38 5 96 76 30 33 5 7 16 99 98 92 96 85 64 20 15 24 93 24 69 76 67 54 27 5
1 5 41 95 89 33 17 53 98 90 100 100 22 12 7 4 5 5 8 44 35 65 71 33 100 100 100 100 100 35 30 77 92 98 96 98 98 12 5 11 5 18 55
78 51 11 5 39 18 38 100 99 99 89 85 9 0 0 0 4 25 32 99 100 100 87 100 100 100 100 96 95 99 49 100 100 19 47 57 22 15 83 98 71 100 100
85 50 0 5 36 30 88 100 99 92 28 1 0 1 0 34 66 95 100 100 100 100 100 100 100 100 100 97 96 99 56 86 79 75 13 45 98 99 100 100 100 100 100
5 5 14 9 22 14 20 40 12 3 0 0 0 1 5 7 99 100 83 93 100 100 100 100 100 100 100 72 69 100 73 96 100 91 44 70 50 61 84 83 76 100 93
5 5 5 0 0 0 0 8 2 0 0 0 5 5 10 74 37 64 100 100 100 100 100 100 100 100 91 86 100 96 25 69 94 27 5 5 5 67 100 97 100 100 99
0 3 3 0 0 1 1 0 0 0 1 5 1 5 27 94 98 100 100 100 100 98 82 97 100 100 96 100 100 100 91 5 5 5 92 99 100 100 100 100 100 87 70
0 0 0 0 1 5 1 1 0 1 5 8 37 60 14 58 95 100 100 100 50 69 99 100 89 100 100 100 87 25 93 73 10 90 100 100 100 91 19 88 60 5 5
0 0 2 5 27 93 99 98 70 34 50 26 11 42 79 97 99 100 100 100 100 100 100 100 100 100 100 90 99 69 82 63 94 91 74 15 4 5 5 3 3 1 1
5 72 59 97 51 41 7 64 74 99 76 43 95 92 87 40 26 27 45 100 100 100 100 100 100 100 100 100 86 96 100 100 78 6 5 1 5 5 5 0 0 2 5
5 5 0 0 5 5 93 100 96 84 100 87 74 22 65 100 100 100 100 100 100 100 100 100 100 100 100 100 84 95 24 5 5 5 27 5 5 5 5 0 0 3 5
4 4 2 5 5 5 6 7 73 69 22 31 96 83 100 100 100 100 100 100 100 100 100 100 100 100 100 100 90 5 5 5 5 5 5 5 46 5 3 0 5 5 5
4 4 5 5 5 22 12 5 0 5 5 5 29 77 99 100 100 100 100 100 100 92 100 100 100 100 96 9 5 5 5 16 5 63 5 5 5 3 1 5 5 5 5
4 5 5 5 5 5 5 5 5 51 10 34 96 100 100 100 100 100 100 100 100 100 96 100 100 87 60 7 3 5 5 89 74 73 5 5 2 0 4 5 5 5 5
5 5 5 5 5 5 5 5 11 47 100 60 91 100 100 100 100 100 100 100 100 100 100 100 100 84 6 45 3 5 92 94 91 74 50 5 5 5 5 5 5 5 5
59 41 6 38 50 6 13 23 31 100 99 71 100 100 100 100 100 100 100 100 100 100 100 86 53 72 99 12 4 5 74 99 100 99 50 14 5 5 5 5 5 5 5
5 8 89 85 89 68 81 96 100 99 93 100 100 100 99 100 100 100 100 100 100 98 87 100 100 84 5 5 0 5 5 65 94 100 48 88 66 38 64 12 5 5 7
97 100 100 93 99 80 97 99 100 100 72 59 12 79 98 100 100 100 100 95 98 99 100 100 64 8 5 5 5 5 3 47 89 79 100 99 98 100 70 90 61 60 53
100 100 100 98 100 100 100 100 100 92 42 29 83 99 100 100 100 90 91 84 100 100 100 85 5 5 5 5 5 6 5 84 100 100 97 100 96 100 82 99 60 86 56
100 100 97 100 100 100 99 98 88 58 65 71 67 25 50 58 62 84 76 100 100 99 70 5 5 5 5 5 5 5 7 14 68 98 100 99 100 100 99 100 86 100 42
100 100 100 100 96 67 70 38 44 6 5 5 5 5 7 81 100 95 91 100 100 73 72 13 5 5 5 5 5 5 5 8 71 100 88 90 92 100 100 100 100 94 78

GFSMW_prec_cloud_036.txt.gz
Cloud_Cover
100 100 100 100 100 87 44 8 100 100 100 100 100 100 100 100 100 100 100 100 100 100 100 100 100 100 37 6 99 86 5 0 0 0 0 0 0 2 0 0 0 0 0
100 100 77 92 100 100 100 100 100 79 94 100 100 100 100 100 100 100 100 100 91 72 74 63 25 13 68 39 2 0 0 0 0 5 4 1 0 3 54 5 5 5 4
100 100 100 100 100 100 100 100 100 100 100 89 86 97 77 50 39 51 30 60 59 31 5 17 47 14 0 0 0 4 6 32 84 5 67 25 5 4 5 21 5 5 5
100 100 100 100 100 91 82 78 94 77 20 18 85 93 84 100 74 77 73 30 7 20 33 11 0 0 3 4 5 76 85 91 46 30 45 21 5 5 4 3 4 5 5
81 100 98 100 99 100 100 100 100 100 84 84 100 100 100 100 100 82 18 5 13 5 5 5 5 6 5 7 88 89 85 6 5 79 93 32 5 5 5 5 5 0 2
98 19 4 5 17 5 11 93 77 94 100 100 100 100 100 100 47 62 45 5 5 6 40 5 23 35 92 100 90 99 95 80 26 5 6 5 5 5 5 5 3 4 2
62 12 5 5 7 19 32 19 90 100 100 100 100 100 100 100 100 100 38 41 99 79 14 97 86 92 95 100 100 100 17 79 26 5 63 5 5 5 5 6 5 5 12
96 56 5 29 74 26 19 16 24 100 100 100 100 100 100 100 100 89 35 100 100 100 91 61 84 100 100 100 100 100 100 45 18 5 5 5 5 5 6 5 5 17 71
6 6 5 5 5 7 5 16 27 100 100 100 100 100 94 99 53 68 99 91 67 73 100 40 90 100 100 99 72 48 52 76 41 5 9 26 14 38 60 57 5 99 100
5 5 1 0 4 5 5 32 95 100 100 100 100 82 42 72 25 76 98 99 100 99 93 100 64 63 99 91 96 32 74 79 31 82 100 73 54 100 73 11 8 100 100
4 0 3 5 5 5 14 35 35 11 15 35 10 24 15 15 94 92 89 81 40 43 100 100 100 100 71 72 94 80 95 28 75 100 96 90 89 5 5 5 5 5 21
0 5 5 28 55 28 26 33 4 5 54 91 82 89 56 33 51 80 42 88 92 96 100 100 90 100 100 98 98 100 96 6 64 70 100 86 5 5 5 5 5 5 5
0 5 5 2 0 0 1 3 87 98 79 5 6 96 83 37 69 90 17 79 28 100 100 10 69 100 76 100 100 92 100 100 100 95 5 5 5 5 0 3 5 5 5
2 1 0 0 0 0 38 10 75 10 4 5 30 36 58 44 100 91 92 99 100 100 82 86 100 100 100 100 100 100 100 91 76 62 6 5 5 0 2 5 5 5 0
0 0 0 0 0 4 7 16 11 5 1 4 5 12 5 93 84 80 91 80 100 58 98 100 100 100 100 100 100 98 100 50 97 82 39 5 5 5 5 39 41 5 0
0 0 0 0 0 2 5 5 3 5 38 100 91 94 100 100 96 100 87 99 31 39 100 100 100 100 100 100 100 96 86 100 100 37 5 5 5 5 41 22 4 0 5
0 4 5 5 5 5 5 5 10 67 86 68 86 83 97 99 100 100 100 96 98 100 100 100 100 100 100 100 100 99 100 100 94 6 84 8 5 5 5 3 0 3 5
4 5 5 5 5 5 5 5 14 58 98 88 56 18 62 98 100 100 100 100 100 100 100 100 100 100 100 100 100 100 100 100 28 5 99 63 87 13 5 5 4 5 5
1 5 2 1 5 5 31 59 66 75 31 5 5 56 72 88 100 100 100 100 100 100 100 100 100 100 100 100 100 100 100 100 70 89 100 100 99 94 79 5 4 1 5
4 0 5 5 7 13 5 18 14 5 6 11 17 55 91 100 100 99 100 100 100 100 100 100 100 100 100 100 100 100 100 65 6 70 100 100 94 100 100 19 5 5 5
4 5 5 5 5 5 5 18 27 70 38 49 68 92 95 100 100 100 97 83 85 92 100 100 100 100 100 100 100 100 87 35 5 6 53 91 100 100 99 61 9 72 50
5 9 5 5 5 16 32 34 81 62 54 99 100 92 79 64 72 74 58 65 66 100 93 70 100 100 85 97 100 68 15 4 5 5 19 83 76 100 100 93 79 86 63
7 5 28 47 55 25 55 78 100 100 100 100 95 99 80 74 95 80 11 5 8 26 33 76 92 61 82 85 32 5 0 1 20 6 5 6 26 79 100 99 96 100 71
5 5 13 21 89 58 100 99 100 100 100 92 86 74 82 73 29 5 5 5 8 23 85 73 8 5 5 19 5 5 5 5 8 16 91 73 96 100 100 100 100 100 97
19 32 39 98 99 100 100 100 100 96 100 85 73 72 26 5 5 5 6 5 26 72 14 8 70 98 89 51 30 50 100 100 100 100 90 100 100 100 100 89 100 100 100
90 94 100 100 100 100 100 99 67 88 77 70 46 25 28 29 25 23 35 55 72 25 6 6 41 12 63 10 72 86 100 100 100 100 100 100 96 98 100 100 100 100 100

GFSMW_prec_cloud_042.txt.gz
Cloud_Cover
100 100 100 84 100 100 100 100 100 100 100 100 100 100 100 100 100 100 100 100 100 100 100 74 5 5 82 100 24 55 5 5 2 5 5 0 0 0 0 5 0 0 0
100 100 100 100 100 84 93 100 100 100 100 100 100 100 100 100 100 100 100 98 58 61 31 57 21 10 11 38 7 4 4 5 5 5 5 39 19 1 4 0 2 2 0
100 100 100 100 99 28 26 50 98 100 100 100 100 100 100 100 100 87 91 100 100 62 98 100 97 25 5 5 5 5 5 5 5 12 95 89 96 24 4 1 5 4 5
100 100 100 100 58 100 48 87 100 99 100 100 61 39 82 99 38 36 52 70 99 90 67 100 100 70 6 5 5 5 5 89 100 100 89 55 73 5 5 3 2 4 0
100 100 100 100 100 100 100 100 100 100 100 100 100 100 100 74 33 65 75 100 100 100 100 100 100 100 100 69 5 16 98 96 100 79 8 5 4 2 5 5 5 5 5
100 100 100 100 100 100 98 80 78 86 88 88 84 100 100 97 91 74 48 64 96 100 96 100 99 99 76 92 78 85 100 86 97 58 10 21 5 5 2 4 5 5 5
100 99 96 94 96 14 50 75 41 96 92 100 100 100 100 100 100 100 100 100 100 100 100 100 100 100 92 100 100 94 100 86 100 59 80 5 5 5 5 35 19 5 5
84 76 86 44 17 46 15 80 100 77 100 100 100 100 100 100 100 100 100 100 100 100 100 100 100 100 100 100 100 100 100 100 70 5 6 5 30 5 5 23 12 5 50
30 27 31 6 5 5 10 81 70 92 100 100 100 100 100 100 100 100 100 100 100 100 100 100 100 100 100 100 100 95 100 100 24 6 10 86 99 93 23 5 7 43 35
55 24 25 5 5 5 5 5 28 39 36 71 100 100 100 100 100 100 100 100 100 100 100 100 100 100 99 100 99 100 100 100 100 100 93 80 100 100 91 93 100 66 14
78 96 52 8 5 5 5 5 5 2 5 52 98 100 100 100 100 100 100 100 100 100 100 100 99 95 100 91 100 100 100 99 96 100 96 98 91 100 100 100 100 99 92
100 46 100 69 5 5 2 0 0 2 4 23 43 89 100 100 100 100 100 100 100 100 100 100 74 99 100 98 95 100 100 100 100 100 61 100 100 100 100 100 100 100 100
100 100 77 36 95 22 5 5 1 0 5 18 30 61 98 100 100 100 100 100 100 100 100 100 100 100 100 100 100 100 100 100 100 100 100 100 100 100 100 100 100 100 100
99 86 67 91 100 72 62 33 13 23 5 5 3 12 51 97 100 100 100 100 100 100 100 100 100 100 100 100 100 100 100 100 100 100 100 100 100 100 100 100 100 100 100
13 11 18 36 98 88 62 62 38 8 28 52 3 10 46 73 63 50 15 64 86 71 95 94 100 100 100 100 100 96 84 100 100 100 100 100 100 100 100 100 100 100 100
100 74 6 5 5 5 3 23 40 5 14 5 5 5 5 5 5 24 50 55 80 80 100 100 100 100 94 87 98 93 100 100 100 100 100 100 100 100 100 95 83 100 63
52 14 39 5 5 5 5 0 0 0 0 1 5 6 5 5 19 68 91 100 100 100 100 100 88 100 99 100 100 100 100 100 100 97 98 100 100 74 78 72 95 65 5
5 5 5 4 0 3 4 5 4 2 1 0 0 3 5 5 5 5 22 71 94 94 100 97 100 100 93 93 100 70 85 79 90 37 19 85 90 83 40 64 65 95 84
0 0 1 2 4 5 5 5 5 5 5 5 5 22 18 36 51 73 96 83 99 100 99 100 100 100 100 74 65 48 42 24 23 5 23 48 37 10 14 6 53 87 79
5 5 3 5 8 57 86 96 75 50 65 72 64 62 93 100 100 100 100 100 100 96 32 30 11 10 41 20 5 6 5 5 5 14 39 5 17 15 5 13 96 87 66
5 5 5 5 5 5 5 14 21 32 46 73 93 99 100 100 98 96 95 84 20 6 5 5 6 7 5 20 24 9 5 5 11 50 22 80 83 5 2 5 98 70 66
37 65 72 31 40 57 54 62 73 99 92 82 81 87 97 99 100 94 88 57 33 14 6 10 20 8 5 50 79 86 14 13 89 82 28 75 78 64 14 48 5 20 100
9 64 85 90 69 61 72 75 83 86 88 99 100 100 90 66 62 14 5 5 6 14 28 39 54 6 30 15 5 6 84 83 17 71 10 34 100 100 97 31 86 93 100
5 7 57 99 100 95 92 91 93 92 88 56 37 26 5 5 5 5 5 5 6 9 9 58 78 5 5 18 86 49 32 9 5 5 60 25 77 100 98 100 87 100 98
5 5 11 53 49 76 83 72 58 50 51 92 63 28 14 5 5 5 5 5 5 26 8 7 5 32 80 92 88 85 79 50 14 42 5 5 5 90 65 100 99 100 100
7 5 5 5 6 44 62 56 59 100 64 5 6 5 5 5 7 5 5 5 5 5 5 5 24 85 91 73 59 92 94 40 11 72 56 6 5 5 32 100 100 100 100

GFSMW_prec_cloud_045.txt.gz
Cloud_Cover
100 100 100 100 100 100 100 100 100 100 100 100 100 100 100 100 100 100 100 100 100 100 100 89 53 83 15 45 4 5 5 11 56 8 3 1 5 4 4 0 0 0 0
100 100 100 100 83 100 100 100 100 100 100 100 100 100 100 100 100 100 100 100 100 99 89 86 30 6 37 28 5 61 62 27 2 5 5 17 100 59 4 0 1 3 3
100 100 100 100 25 17 100 96 81 100 100 100 100 100 100 100 100 100 100 100 99 73 32 53 39 30 21 38 69 96 95 5 4 5 24 40 84 34 5 2 0 0 0
100 100 100 100 100 18 92 12 26 97 100 100 100 100 100 100 100 100 100 100 100 100 89 73 67 8 59 100 100 100 8 6 20 71 54 58 5 5 6 5 5 4 5
28 98 100 100 23 23 3 5 5 33 100 100 100 100 100 100 100 98 98 97 100 100 78 82 93 92 100 99 96 78 56 100 90 100 89 7 5 5 6 5 5 5 30
84 100 100 100 100 100 97 53 52 44 76 78 96 100 100 92 94 98 100 97 100 99 64 88 100 67 86 100 54 79 100 100 100 100 100 76 68 61 99 84 53 70 41
97 100 100 100 100 100 100 100 100 92 99 45 94 92 51 96 97 100 100 100 100 100 100 92 100 100 100 100 100 100 100 100 93 100 100 98 8 50 84 98 98 54 96
98 100 86 49 5 5 5 5 8 87 69 87 98 100 100 100 100 100 100 100 100 100 100 100 100 100 100 100 100 100 100 100 100 99 62 100 100 99 100 100 100 76 92
6 5 5 12 5 12 72 64 100 87 62 69 100 100 100 100 100 100 100 100 100 100 100 100 100 100 100 100 100 100 100 100 100 92 100 100 90 100 92 95 78 96 88
37 5 5 5 5 5 37 39 35 46 46 23 100 82 100 100 100 95 100 100 100 100 100 100 100 100 100 100 100 100 100 86 99 100 100 100 100 100 100 96 93 100 100
34 11 62 17 9 22 22 25 48 68 79 24 38 36 28 84 100 100 100 100 100 100 100 100 100 100 100 100 100 100 100 99 100 97 100 100 100 100 100 100 100 100 99
2 35 100 99 31 5 5 12 7 27 92 100 26 100 50 87 100 100 100 100 100 100 100 100 100 100 100 100 100 100 100 100 100 100 100 100 89 99 100 100 100 100 100
0 4 20 22 14 59 5 5 11 22 25 98 100 100 95 100 100 100 100 100 100 100 100 100 100 100 100 100 100 100 100 100 100 100 100 99 100 100 100 100 98 88 100
1 3 5 11 100 53 52 100 100 83 63 76 99 100 100 100 100 100 100 100 100 100 100 100 100 100 100 100 100 100 100 89 97 100 100 100 100 100 100 100 100 100 46
5 11 6 5 2 7 33 95 55 35 24 46 88 100 100 100 100 100 100 100 91 93 98 100 100 100 100 100 100 100 61 77 100 100 100 100 89 84 100 100 85 21 19
4 0 0 34 5 1 4 32 34 93 98 43 47 40 17 7 12 9 6 16 38 46 77 100 100 100 100 100 99 43 88 100 100 100 78 82 6 72 55 57 20 5 5
0 0 0 0 23 28 23 45 33 34 3 2 2 1 1 1 2 2 3 5 14 45 100 97 91 90 100 76 59 100 100 100 100 78 16 5 51 5 12 5 16 5 5
0 0 0 2 5 5 5 5 5 5 3 5 5 5 5 5 5 8 6 50 81 99 100 90 98 100 100 100 89 76 76 49 7 5 5 16 49 62 5 5 10 10 5
0 0 2 5 5 5 30 13 5 4 5 5 15 48 79 94 98 100 91 72 98 96 100 100 100 100 56 21 5 24 5 5 23 99 99 74 6 5 5 5 5 4 1
0 0 0 1 4 5 5 5 5 5 5 5 5 5 15 44 72 88 99 100 100 94 56 64 88 35 5 5 5 5 9 13 38 52 50 11 11 9 81 99 11 5 5
0 0 0 2 0 5 59 29 36 48 15 36 63 74 87 98 100 100 78 46 49 87 90 54 10 5 6 8 7 6 8 73 88 98 16 19 5 69 91 100 100 90 31
0 0 5 4 5 5 63 100 100 98 97 100 99 88 82 84 82 83 87 100 89 33 52 32 5 6 12 80 56 44 43 9 5 51 5 5 10 44 5 5 39 100 100
5 5 5 5 5 5 5 82 100 100 100 100 100 100 100 84 99 100 89 68 31 7 5 5 5 22 6 18 17 6 5 5 5 5 4 0 0 5 5 21 33 100 100
6 25 9 7 33 5 5 34 54 60 55 38 24 7 86 96 44 16 5 5 5 5 5 5 5 5 5 6 32 5 5 5 5 5 5 5 5 5 5 5 7 54 100
12 29 98 100 96 35 46 22 76 89 98 46 38 97 87 6 5 62 75 5 26 73 50 5 27 18 8 67 43 27 7 5 5 5 5 67 97 91 32 7 5 13 75
5 5 91 76 56 81 87 100 94 16 52 98 77 9 5 6 10 14 46 56 52 22 11 36 51 12 51 5 5 26 59 8 5 9 70 37 74 72 88 98 92 97 98

GFSMW_prec_cloud_048.txt.gz
Cloud_Cover
100 100 100 100 100 100 100 100 100 100 100 100 100 100 100 100 100 100 100 100 100 100 100 100 100 100 100 100 100 100 17 5 5 5 3 1 0 5 5 5 0 5 0
100 100 100 100 99 100 100 100 100 100 100 100 100 100 100 100 100 100 100 100 100 100 100 100 100 100 57 82 24 6 5 6 5 15 24 5 7 10 5 5 5 5 1
100 100 100 100 100 100 100 100 100 100 100 100 100 100 100 100 100 100 100 100 100 100 79 67 100 100 91 73 34 6 38 78 59 89 34 36 22 5 5 5 5 5 5
100 100 99 100 100 99 85 100 100 100 100 100 100 100 100 100 100 100 100 100 100 100 100 99 95 98 91 100 100 83 68 85 34 68 86 95 100 62 25 19 7 5 5
100 100 100 100 88 33 1 48 100 100 90 93 100 100 100 41 92 100 100 100 81 57 100 100 100 98 100 97 99 100 100 100 73 88 100 100 100 100 95 98 89 7 5
97 76 100 100 100 87 92 5 5 15 62 40 79 86 100 100 100 100 100 100 93 100 100 100 100 92 100 100 100 100 100 100 100 100 100 100 53 100 100 100 69 62 100
100 98 25 96 100 100 100 100 100 99 86 100 99 81 84 99 91 79 50 99 100 100 100 100 100 100 100 100 100 100 100 100 100 100 100 100 100 99 72 100 89 71 99
71 96 95 100 100 100 100 100 100 100 100 100 100 100 74 100 100 96 82 100 87 100 100 100 100 100 100 100 100 100 100 100 100 100 100 100 92 99 100 100 95 67 80
60 64 13 15 5 14 18 5 12 5 5 5 81 71 100 100 100 100 62 93 100 100 100 100 100 100 100 100 100 100 100 100 100 100 100 98 100 74 100 100 100 86 85
5 27 36 51 57 51 27 12 31 80 16 18 5 94 100 100 89 98 100 100 80 79 100 100 100 100 100 100 100 100 100 100 100 100 100 100 100 99 77 100 100 100 45
5 5 5 79 100 94 78 40 5 13 35 88 84 72 98 41 28 93 100 100 100 100 100 100 100 100 100 100 100 100 100 100 100 100 99 100 100 100 93 8 64 80 20
0 2 5 59 99 60 39 10 41 5 91 100 100 77 76 64 34 58 82 100 100 100 100 100 100 100 100 100 100 100 100 100 100 100 100 99 94 24 49 99 95 76 100
0 0 0 0 1 4 5 5 3 4 55 8 26 100 97 100 100 100 100 100 100 100 100 100 100 100 100 100 100 100 100 100 100 100 98 79 100 100 100 95 100 99 100
5 0 0 0 0 0 0 0 2 1 72 80 18 76 100 100 100 100 100 100 100 100 100 100 100 100 100 100 100 100 100 100 100 100 80 100 100 100 99 84 71 28 39
0 4 2 0 0 0 0 2 32 30 57 60 54 64 81 100 100 100 100 100 100 100 100 100 100 100 100 100 100 100 100 100 90 54 97 100 84 7 6 5 5 7 14
0 0 0 0 0 0 12 0 6 0 12 5 60 100 100 100 100 100 100 100 51 30 27 95 65 58 28 99 100 100 100 100 100 100 100 71 5 5 5 5 5 5 5
0 0 0 0 0 14 46 83 41 42 35 61 85 68 57 23 18 23 13 24 5 5 5 27 60 59 79 73 34 72 100 100 100 94 12 5 5 5 5 5 5 5 5
0 0 0 0 7 1 31 37 30 8 5 5 4 5 5 9 23 26 23 21 32 37 48 18 29 88 100 89 100 100 68 44 38 7 5 5 5 5 5 5 5 5 5
0 0 0 0 0 0 0 0 5 5 5 83 61 5 5 5 5 5 9 5 10 70 92 99 37 95 100 55 10 24 88 33 5 5 6 26 6 5 5 5 5 5 5
5 0 0 0 0 0 0 5 5 5 3 1 5 6 9 42 26 82 100 70 93 67 56 100 100 18 5 68 100 94 6 44 93 100 100 53 100 82 24 28 73 98 96
5 5 5 1 0 0 0 0 4 3 4 0 5 11 100 96 84 61 46 57 87 99 100 96 57 33 100 98 72 46 26 83 100 65 44 100 91 47 41 37 38 19 5
83 100 100 77 5 5 5 5 5 5 5 5 6 22 12 13 20 60 65 56 100 99 71 22 84 100 90 62 37 42 23 5 30 22 100 100 90 38 6 35 5 5 6
45 70 99 100 42 5 5 5 5 5 5 38 10 21 80 100 100 75 96 100 84 56 67 66 40 16 13 45 78 64 71 97 97 99 100 93 52 25 35 56 42 22 9
79 62 79 100 100 98 18 5 99 32 19 60 100 100 100 89 44 95 79 44 5 7 7 7 71 19 5 5 13 54 91 96 100 100 95 58 44 48 100 67 7 94 100
97 38 54 92 100 100 100 79 99 88 100 100 100 100 85 68 67 84 57 6 5 26 100 92 65 66 43 89 13 51 86 100 100 72 10 31 86 100 84 8 20 74 53
100 26 73 78 62 92 92 93 100 62 48 84 100 100 33 57 62 55 50 95 100 100 100 98 80 69 91 55 12 94 100 100 52 5 26 50 100 75 5 65 92 75 92

GFSMW_prec_cloud_054.txt.gz
Cloud_Cover
6 41 82 57 100 100 100 98 94 100 100 100 100 100 100 100 100 83 100 97 100 100 100 100 100 100 100 100 100 100 100 100 100 100 100 100 100 100 62 6 85 100 86
20 46 80 70 100 100 84 92 100 100 100 100 100 100 100 100 100 100 100 100 100 100 100 100 100 100 100 100 100 100 100 100 100 100 100 100 100 100 77 100 94 16 42
58 45 99 89 100 100 100 90 100 100 100 100 100 100 100 100 100 100 100 100 100 100 100 100 100 87 95 97 100 65 94 70 100 100 100 100 100 100 100 85 83 89 100
100 82 39 100 99 100 100 100 95 100 100 100 100 100 100 100 100 100 100 100 100 100 100 100 100 100 100 100 100 99 100 94 100 100 100 100 100 100 100 100 96 100 100
33 99 100 100 100 100 100 100 100 100 100 100 100 100 100 100 100 100 100 100 100 100 100 100 100 100 100 100 100 100 100 96 95 92 100 100 100 98 100 97 100 100 100
4 45 96 100 100 100 95 86 92 96 100 100 100 100 100 100 100 100 100 100 100 95 100 100 100 100 99 99 100 100 100 99 83 100 100 99 100 100 100 100 97 100 100
4 5 45 50 100 100 100 38 5 5 5 15 92 94 89 100 99 100 61 100 100 100 100 100 100 100 100 100 100 100 100 100 100 100 100 100 98 100 100 100 100 100 100
0 4 5 5 14 100 100 100 98 99 70 5 14 26 92 99 100 92 100 100 98 99 100 100 100 92 100 100 100 100 100 100 100 100 100 100 100 100 100 100 100 100 99
0 0 4 13 49 17 38 99 100 100 100 100 100 100 100 94 99 63 99 100 100 100 97 92 92 100 100 100 100 100 100 100 100 100 100 100 100 100 100 100 100 100 100
3 2 1 31 4 15 100 87 74 89 94 99 91 100 100 100 100 100 100 100 100 100 100 100 98 94 95 97 100 100 100 100 100 100 100 100 100 100 100 100 100 85 100
0 0 0 0 18 70 67 100 100 100 97 100 100 98 52 100 100 100 100 100 100 100 100 100 100 40 41 66 79 100 100 100 100 100 100 100 100 100 100 100 90 100 88
0 0 0 0 1 3 19 17 23 72 100 100 100 100 100 100 100 100 100 100 100 100 100 100 88 65 100 100 100 100 100 100 100 100 100 98 100 100 100 100 100 8 84
0 0 0 0 0 0 0 4 88 99 100 100 91 100 100 98 100 100 100 100 100 100 100 100 100 100 100 100 100 100 100 100 84 84 100 100 100 100 100 100 73 83 67
3 0 0 0 0 0 0 0 0 1 59 100 100 100 89 85 100 100 100 100 100 100 100 100 100 100 100 100 100 100 100 100 88 99 100 100 100 100 97 82 13 5 91
24 1 0 0 0 0 1 3 0 1 5 5 20 97 100 100 100 100 100 100 100 100 100 100 100 100 100 100 100 100 100 76 100 100 100 100 100 96 96 53 51 94 73
13 5 5 0 0 0 0 0 0 0 0 91 100 100 100 100 100 100 100 100 100 100 100 100 100 100 100 100 100 91 100 100 100 100 100 100 100 100 89 5 8 5 5
18 34 5 5 1 0 0 0 4 8 20 100 100 100 100 100 100 100 100 100 100 100 100 100 100 100 100 100 100 100 100 100 100 100 96 100 100 64 65 73 96 41 82
46 6 6 39 4 0 0 4 18 45 91 97 100 100 100 100 100 100 81 98 100 100 100 100 100 100 100 100 98 95 65 34 6 25 21 38 18 85 99 80 100 100 97
100 74 68 3 1 14 5 5 17 63 91 100 100 100 100 100 100 100 100 100 99 100 100 80 29 10 5 5 6 8 36 5 8 14 9 14 27 64 6 61 9 83 100
100 100 8 3 5 84 30 5 65 40 25 50 83 98 99 99 45 73 64 21 5 4 5 5 53 46 37 100 100 98 47 8 5 7 7 19 26 17 66 46 16 100 100
100 96 78 36 32 13 1 13 4 43 48 40 100 100 100 34 24 26 5 5 5 5 5 5 74 98 98 86 45 48 94 36 92 75 50 53 62 69 92 74 86 100 100
93 100 100 32 5 4 5 5 5 5 13 82 100 100 72 100 39 7 5 5 5 5 52 94 48 57 12 6 5 66 61 52 94 100 100 100 100 98 87 84 100 100 100
100 100 100 90 95 5 5 5 11 63 100 100 100 94 24 62 85 60 5 47 69 53 35 6 19 21 10 46 86 100 100 100 100 100 100 100 100 100 100 100 100 100 100
100 100 100 81 90 100 100 100 100 100 100 100 100 100 84 68 73 97 100 100 67 10 9 5 46 59 100 100 100 100 100 100 100 100 100 100 100 100 100 100 100 100 100
100 100 100 100 100 100 100 100 100 100 100 100 100 100 100 100 96 91 42 78 100 100 74 100 100 100 100 100 100 100 100 100 100 100 98 100 100 100 100 100 100 100 100
100 100 100 100 100 100 100 100 100 100 100 100 100 100 100 100 100 100 100 100 100 100 100 100 100 100 100 100 100 100 100 100 100 100 100 100 100 100 100 100 100 100 100

GFSMW_prec_cloud_057.txt.gz
Cloud_Cover
1 19 83 100 100 100 99 31 100 100 100 100 100 100 100 100 100 100 100 100 100 100 100 100 100 100 100 100 100 100 100 100 100 100 100 100 100 100 100 100 79 100 100
99 87 100 100 100 100 100 100 90 100 100 100 100 100 100 100 100 100 100 100 100 100 100 100 100 100 100 100 100 100 100 100 100 100 100 100 100 100 100 98 100 100 100
77 100 100 97 100 100 100 100 92 100 100 100 100 100 100 100 100 100 100 100 98 100 100 100 97 100 100 100 100 100 100 100 100 100 100 100 100 100 100 100 98 100 100
0 42 95 100 33 100 100 100 100 59 100 100 100 100 100 100 100 100 100 100 100 100 100 100 100 100 100 100 100 100 100 100 100 100 100 100 100 100 100 100 94 100 92
0 9 49 99 80 81 61 82 100 99 100 100 100 100 100 100 100 100 100 100 100 100 100 100 100 100 100 100 100 100 100 100 100 100 100 100 100 100 100 100 100 100 100
2 4 1 48 100 87 31 30 53 97 100 100 95 100 100 100 100 100 100 100 100 100 100 100 100 100 100 100 100 100 100 100 100 100 100 94 84 100 100 100 100 100 100
0 0 0 5 51 100 79 30 6 9 7 46 96 100 100 100 100 100 100 100 100 100 100 100 100 100 100 100 100 100 100 100 100 100 100 100 100 100 100 100 98 100 100
0 0 0 0 5 43 100 98 27 5 14 45 25 22 75 86 100 100 100 100 100 100 100 100 100 100 79 100 93 100 100 100 100 100 100 100 100 100 100 100 100 100 100
1 0 0 0 2 5 30 92 100 100 66 37 16 100 57 52 99 97 70 79 99 100 98 100 100 93 46 76 98 100 92 99 100 100 100 100 100 100 100 100 100 100 100
0 1 4 0 13 54 6 13 66 92 100 100 100 100 100 100 100 99 84 90 100 98 100 100 100 100 100 100 82 75 97 65 79 100 100 100 100 99 100 100 100 100 100
0 0 0 0 0 5 15 72 68 16 52 100 100 100 81 80 96 91 86 100 100 100 100 100 100 100 100 100 100 49 58 72 100 100 100 100 100 100 99 78 100 100 100
4 0 0 0 0 0 0 5 98 100 86 99 85 100 100 77 99 100 100 100 100 100 100 100 100 100 100 100 100 100 100 100 100 100 100 100 100 100 99 100 100 100 100
5 5 0 0 0 0 0 0 0 10 90 100 100 95 99 100 32 98 100 100 100 100 100 100 100 100 100 100 100 100 100 100 100 100 100 100 98 86 100 100 100 100 100
5 5 3 4 0 0 0 0 0 0 0 2 92 100 100 100 100 100 100 100 100 100 100 100 100 100 100 100 100 100 100 100 100 100 100 100 99 98 100 100 100 92 45
5 5 5 5 5 8 1 0 0 0 0 0 0 8 33 73 100 100 100 100 100 100 100 100 100 100 100 100 100 100 100 100 100 100 100 100 100 100 100 100 91 84 42
100 12 80 10 5 5 6 9 1 0 0 0 20 54 78 100 100 100 100 100 100 100 100 100 100 100 100 100 100 100 100 100 100 74 94 100 100 100 100 95 100 41 42
100 92 82 45 3 5 5 5 27 64 35 11 5 6 83 99 100 100 100 100 100 100 100 100 100 100 100 100 100 100 100 100 100 100 100 100 100 100 100 96 35 13 28
100 100 100 5 7 10 36 12 5 0 5 20 59 80 94 79 100 100 100 100 100 100 100 100 100 100 100 100 100 100 100 100 100 100 100 100 100 100 75 75 98 95 81
100 100 38 51 100 99 82 20 49 41 51 94 95 99 100 100 100 100 100 100 100 100 100 100 100 100 100 100 100 100 100 100 100 100 99 98 90 43 18 78 95 100 100
92 100 100 100 99 36 81 75 79 96 100 100 100 100 100 100 100 100 100 100 100 100 100 100 100 100 100 100 100 100 99 91 64 26 12 92 79 98 100 99 100 100 100
82 100 100 100 100 100 100 100 82 84 95 100 100 100 100 100 100 100 100 100 100 100 100 100 100 98 92 88 100 100 100 91 50 13 55 100 100 100 100 97 100 90 100
100 100 100 100 100 100 100 100 100 55 36 75 100 100 100 100 100 100 100 100 100 100 100 85 100 94 99 100 100 100 100 57 60 100 100 100 95 100 100 100 100 100 100
100 100 100 100 100 100 100 100 100 92 65 85 100 100 100 100 100 100 100 100 100 100 100 87 100 100 100 100 100 100 43 96 88 100 99 100 100 100 100 100 100 100 100
100 100 100 100 100 100 100 100 100 100 72 74 78 99 100 100 100 100 100 100 100 100 100 100 100 100 100 100 100 100 100 100 100 100 100 100 100 100 100 100 100 100 100
100 100 100 100 100 100 100 100 100 100 79 97 100 100 100 100 100 100 100 100 100 100 100 100 100 100 100 100 100 100 100 100 100 100 100 100 100 100 100 100 100 100 100
97 99 100 100 100 100 100 100 100 100 100 100 100 100 100 100 100 100 100 100 100 100 100 100 100 100 100 100 100 100 100 100 100 100 100 100 100 100 100 100 100 100 100

GFSMW_prec_cloud_060.txt.gz
Cloud_Cover
19 70 100 100 100 100 100 100 100 100 100 100 100 100 100 90 100 100 100 100 100 100 100 100 100 100 100 100 100 100 100 100 100 100 100 100 100 100 100 100 100 100 100
100 97 100 100 100 100 100 100 100 100 100 100 100 100 100 100 100 100 100 100 100 100 100 100 100 100 100 100 100 100 100 100 100 100 100 100 100 100 100 100 100 100 100
100 100 100 100 100 91 100 100 100 100 100 100 100 100 100 100 100 100 100 100 100 100 100 100 100 100 100 100 100 100 100 100 100 100 100 100 100 100 100 100 100 100 100
46 100 100 100 100 42 82 100 98 100 100 100 100 100 100 100 100 100 100 100 100 100 100 100 100 100 100 100 100 100 100 100 100 100 100 100 100 88 100 100 99 100 100
2 96 100 99 100 100 70 100 99 98 100 100 98 100 100 100 100 100 100 100 100 100 100 100 100 100 100 100 100 100 100 100 100 100 100 100 92 100 100 99 100 100 100
0 6 25 20 92 100 100 100 98 98 99 68 55 98 99 100 100 100 100 100 100 100 100 100 100 100 100 100 100 100 95 99 100 82 76 91 100 99 100 100 80 100 100
0 8 54 64 44 71 100 99 69 89 87 46 94 95 96 100 100 100 100 100 100 100 100 100 100 100 100 100 99 100 100 100 100 100 99 83 100 100 100 100 100 100 100
0 0 0 2 1 6 89 100 99 56 2 6 32 72 100 100 100 100 100 100 100 100 100 100 100 100 89 56 81 100 100 88 77 98 65 100 98 100 100 100 100 100 100
0 0 0 0 0 0 1 16 76 76 40 5 5 5 5 5 5 5 6 5 47 5 5 38 8 9 30 16 45 98 100 83 64 55 46 72 100 100 100 100 100 100 96
0 0 0 0 0 0 3 85 20 5 68 100 100 99 95 12 5 28 70 100 52 13 44 40 62 69 48 44 92 78 93 79 96 76 84 100 100 100 100 100 100 93 97
17 5 0 0 0 10 2 5 5 5 48 5 28 98 100 100 99 100 89 100 96 96 86 88 99 92 100 100 100 100 100 100 98 100 88 96 100 100 100 100 94 83 88
5 5 12 0 0 0 0 0 3 5 34 86 42 69 80 92 100 100 62 79 99 96 100 67 100 100 100 100 100 100 100 100 100 100 100 100 100 100 80 98 100 100 70
10 5 5 5 0 0 0 0 0 0 10 90 100 100 100 100 96 70 80 48 81 89 99 100 100 100 100 100 100 100 100 100 100 100 100 100 100 100 100 86 100 100 100
100 35 53 5 5 5 0 0 0 0 0 0 0 8 75 74 91 91 56 97 87 100 100 100 100 100 100 100 100 100 100 100 100 100 100 100 100 100 100 100 100 100 99
100 100 100 53 23 6 6 0 0 0 0 0 0 0 0 2 18 70 50 100 100 100 100 100 100 100 100 100 100 100 100 100 100 100 100 100 100 100 100 100 99 100 100
100 100 100 100 85 9 32 38 1 0 0 0 0 0 0 0 0 0 14 100 100 100 100 100 100 100 100 98 92 100 100 100 100 100 100 100 100 100 100 100 100 100 100
100 100 100 100 84 100 100 100 100 44 21 1 0 0 0 3 2 12 52 99 98 100 100 100 100 100 100 100 100 100 100 100 100 100 100 100 100 100 100 100 100 100 100
98 96 36 100 100 100 100 100 44 58 100 96 9 5 5 5 33 91 96 100 100 100 100 100 100 100 100 100 100 100 100 100 100 100 100 100 100 100 100 100 100 100 100
100 87 99 98 100 100 100 100 100 97 100 30 85 61 26 77 100 100 100 100 100 100 100 100 100 100 100 100 100 100 100 100 100 100 100 100 100 100 100 100 100 92 94
100 100 100 100 97 100 100 100 100 100 9 17 76 97 100 100 100 100 100 100 100 100 100 100 100 100 100 100 100 100 100 100 100 100 100 100 100 100 100 99 100 100 100
100 100 100 100 100 97 100 93 100 90 88 100 100 100 100 100 100 100 100 100 100 100 100 100 100 100 100 100 100 100 100 100 100 100 100 100 100 98 89 100 100 100 100
100 100 100 100 100 100 100 100 96 100 100 100 100 100 100 100 100 100 100 100 100 100 100 100 100 100 100 100 100 100 100 100 100 100 100 100 99 95 100 99 100 100 100
100 96 99 100 100 100 100 100 100 100 100 100 100 100 100 100 100 100 100 100 100 100 100 100 100 100 100 100 100 100 100 100 100 100 100 100 100 100 100 100 100 100 100
100 100 100 100 100 100 100 100 100 100 100 100 100 100 100 100 100 100 100 100 100 100 100 100 100 100 100 100 100 100 100 100 100 100 100 100 100 100 100 100 100 100 100
100 100 100 100 100 100 98 100 100 100 100 100 100 100 100 100 100 100 100 100 100 100 100 100 100 100 100 100 100 100 100 100 100 100 100 100 100 100 100 100 100 100 100
100 100 100 80 100 100 100 100 100 100 100 100 100 100 100 100 100 100 100 100 100 100 100 100 100 100 100 100 100 100 100 100 100 100 100 100 100 100 100 100 100 100 100

GFSMW_prec_cloud_063.txt.gz
Cloud_Cover
52 100 100 100 100 100 100 100 100 100 100 100 100 100 100 100 100 100 100 100 100 100 100 100 100 100 100 100 100 100 100 100 100 100 100 100 100 100 100 100 100 100 100
96 98 100 100 100 100 100 100 100 100 100 100 100 100 100 86 100 100 100 100 100 100 100 100 100 100 100 100 100 100 100 100 100 100 100 100 100 100 100 100 100 100 100
98 73 70 100 100 100 100 100 100 100 100 100 100 100 100 100 100 100 100 100 100 100 100 100 100 100 100 100 100 100 100 100 100 100 100 100 100 100 97 100 100 100 99
6 28 68 100 100 81 100 100 100 100 100 98 88 100 100 100 100 100 100 100 100 100 100 100 100 100 100 100 100 100 100 100 100 100 100 82 83 100 100 94 100 100 100
0 0 0 4 51 100 64 55 100 100 100 100 100 100 100 100 100 100 100 100 100 100 100 100 100 100 100 100 100 100 100 100 100 100 100 100 100 100 98 100 100 100 100
0 0 0 0 23 87 75 56 98 100 100 100 100 100 100 100 100 100 100 100 100 100 100 100 100 100 100 100 100 100 91 100 94 100 100 100 98 99 100 100 100 100 100
0 2 41 35 46 98 60 83 22 58 100 100 100 100 100 100 100 100 100 100 100 100 100 100 100 100 100 100 100 100 100 100 100 100 100 100 100 100 92 99 100 100 100
0 0 0 2 14 97 29 54 46 90 100 87 23 47 84 98 100 100 100 100 100 100 100 100 100 100 100 100 100 100 100 100 100 100 100 100 100 100 99 98 98 100 100
5 5 5 0 0 1 18 25 97 100 100 99 6 5 5 30 92 97 99 95 98 100 100 100 100 100 100 99 95 77 89 93 80 98 100 100 99 100 97 81 100 100 100
6 40 6 4 0 0 0 14 4 3 85 100 60 5 1 4 5 5 5 5 5 5 15 78 98 85 77 60 48 70 99 100 95 100 100 100 100 100 100 100 100 100 100
5 5 5 5 5 0 0 0 0 5 1 0 1 41 41 81 83 74 95 30 50 53 79 24 14 67 100 100 87 56 100 100 100 100 100 100 100 100 100 100 100 100 87
23 5 5 5 5 0 0 0 0 0 4 5 5 5 40 48 100 100 100 100 92 96 56 68 87 100 76 100 100 100 100 100 100 100 100 100 100 100 100 100 100 100 59
5 9 33 5 5 5 1 0 0 0 4 96 100 69 10 5 42 9 74 80 76 8 73 99 88 90 68 100 100 100 100 100 100 100 100 100 100 100 99 100 100 100 99
93 100 6 55 59 5 5 3 5 2 0 0 1 6 61 99 85 40 60 100 77 30 53 96 93 77 100 100 100 100 100 100 100 100 100 100 100 100 100 100 100 100 100
100 100 88 5 62 96 5 5 5 4 1 0 0 0 0 0 4 28 68 24 58 28 88 98 100 41 48 68 99 100 100 100 100 100 100 100 100 100 100 100 100 100 100
100 100 100 100 11 5 100 10 42 5 15 5 2 0 0 0 0 0 0 0 0 4 2 37 100 100 100 100 100 100 100 100 100 100 100 100 100 100 100 100 100 100 100
100 100 100 100 42 65 6 91 78 61 94 11 5 0 5 1 0 0 0 0 1 12 19 90 100 100 100 100 100 100 100 100 100 100 100 100 100 100 100 100 100 100 100
100 100 100 100 100 100 29 44 5 37 100 100 82 7 5 5 2 6 5 28 73 82 98 100 100 100 100 100 100 100 100 100 100 100 100 100 100 100 100 100 100 100 100
100 52 100 80 100 100 100 100 46 6 38 100 100 94 62 97 2 46 90 97 99 100 100 100 100 100 100 100 100 100 100 100 100 100 100 100 100 100 100 100 100 100 100
100 100 100 100 100 100 100 100 100 100 66 10 99 100 45 100 100 100 100 100 100 100 100 100 100 100 100 100 100 100 100 100 100 100 100 100 100 100 100 100 100 100 100
100 100 100 100 100 100 100 100 100 100 100 99 100 100 100 82 100 100 100 100 100 100 100 100 100 100 100 100 100 100 100 100 100 100 100 100 100 100 100 100 100 100 100
100 100 100 100 100 100 99 100 100 100 100 100 100 100 100 100 100 100 100 100 100 100 100 100 100 100 100 100 100 100 100 100 100 100 100 100 100 100 100 100 100 100 100
100 100 100 100 100 100 100 100 100 100 100 100 100 100 100 100 100 100 100 100 100 100 100 100 100 100 100 100 100 100 100 100 100 100 100 100 100 100 100 100 100 100 100
100 100 100 100 100 100 100 100 100 100 100 100 100 100 100 100 100 100 100 100 100 100 100 100 100 100 100 100 100 100 100 100 100 100 100 100 100 100 100 100 100 100 100
71 95 100 100 100 100 100 100 100 100 100 100 100 100 100 100 100 100 100 100 100 100 100 100 100 100 100 100 100 100 100 100 100 100 100 100 100 100 100 100 100 100 100
89 100 97 93 96 100 100 100 100 100 100 100 100 100 100 100 100 100 100 100 100 100 100 100 100 100 100 100 100 100 100 100 100 100 100 100 100 100 100 100 100 100 100

GFSMW_prec_cloud_069.txt.gz
Cloud_Cover
0 0 3 100 96 91 100 100 100 100 100 100 100 100 100 100 100 100 100 100 100 100 100 100 100 100 100 100 100 100 100 100 100 100 100 100 100 100 100 100 100 100 100
0 0 0 36 100 99 94 100 100 100 100 100 100 100 100 100 100 100 100 100 100 100 100 100 100 100 100 100 100 100 100 100 100 100 100 100 100 100 100 100 100 100 100
0 0 0 0 45 100 100 100 100 99 100 100 100 100 100 100 100 100 100 100 100 100 100 90 100 100 100 100 100 100 100 100 100 100 100 100 100 100 100 100 100 100 100
0 0 0 0 0 87 100 100 98 100 99 100 98 100 100 100 92 100 100 100 100 100 100 95 100 100 100 100 100 100 100 100 100 96 100 100 99 100 100 100 100 100 100
0 0 0 0 0 19 100 100 100 100 100 100 100 100 100 100 100 100 100 100 100 100 100 100 100 100 100 100 100 100 100 100 100 99 100 94 84 100 100 100 100 100 100
0 0 0 0 0 8 84 100 100 100 100 100 100 100 100 99 100 100 100 100 100 100 100 100 100 100 100 100 100 100 100 100 100 100 100 100 100 100 100 100 100 100 100
0 0 0 0 0 0 15 80 100 100 100 100 100 98 85 99 99 100 100 100 99 100 93 100 100 100 100 100 100 100 100 100 100 100 100 100 100 100 100 100 100 100 100
3 2 1 0 0 0 0 5 44 100 100 100 99 100 97 95 100 99 98 90 100 100 100 100 100 100 100 100 100 100 100 100 100 100 100 100 100 100 100 100 100 74 100
0 1 0 0 0 0 0 0 0 8 89 77 100 100 100 95 98 100 97 94 89 100 100 100 100 100 94 66 99 100 100 100 100 100 100 100 100 100 100 100 90 92 100
10 1 4 0 0 0 0 0 0 0 3 84 50 82 75 61 100 87 72 100 100 100 100 100 100 100 100 100 100 100 100 100 100 100 100 100 100 100 100 90 91 94 83
94 1 100 52 0 0 0 0 0 0 0 0 28 77 66 100 100 98 24 6 18 90 100 100 100 100 100 100 100 100 100 100 100 100 100 100 100 98 95 100 100 100 100
100 100 100 3 98 100 1 0 0 0 0 0 0 13 26 55 44 7 36 81 34 5 9 18 27 97 99 63 99 96 99 100 96 100 100 100 99 93 100 100 100 100 100
9 92 100 100 100 100 100 5 0 0 0 0 0 0 0 0 0 0 12 14 1 1 48 96 58 12 50 35 55 69 83 85 92 100 62 75 94 100 100 100 100 100 100
7 27 5 5 4 4 100 100 36 0 0 1 0 0 0 0 0 0 0 0 0 0 4 5 5 6 40 44 54 63 62 23 5 5 43 86 97 100 78 100 100 100 100
92 100 100 40 5 6 30 40 100 92 15 0 0 2 0 0 0 0 0 0 0 0 0 1 0 4 5 5 5 5 5 5 14 100 90 59 75 100 100 100 100 100 100
100 45 44 88 100 93 5 5 5 10 92 100 86 0 0 0 4 6 98 7 0 0 0 0 0 0 0 5 5 9 78 74 83 86 32 99 100 100 100 100 100 100 100
22 17 98 98 100 100 30 11 21 98 8 100 100 100 9 0 1 2 6 94 100 86 4 19 3 2 2 5 5 2 3 42 37 20 87 98 100 100 100 100 100 100 100
100 78 43 40 100 98 100 92 86 30 48 65 69 100 100 100 55 45 100 80 14 65 100 100 100 70 50 22 100 100 26 52 35 100 100 100 100 100 100 100 100 100 100
100 100 56 60 14 5 84 42 19 5 5 40 100 100 98 86 100 100 100 100 100 99 97 99 100 100 100 92 100 100 98 99 100 100 100 100 100 100 100 100 100 100 100
100 100 100 100 100 100 100 92 33 55 56 100 100 100 100 94 100 90 84 99 100 100 100 100 100 100 100 100 100 100 100 100 100 100 100 100 100 100 100 100 100 100 100
100 100 100 100 100 100 100 100 100 100 100 100 100 100 100 100 88 89 100 100 69 76 100 100 100 100 100 100 100 100 100 100 100 100 100 100 100 100 100 100 100 100 100
100 100 100 100 100 100 100 100 100 100 100 100 100 100 70 100 100 100 100 100 100 100 100 100 100 100 100 100 100 100 100 100 100 100 100 100 100 100 100 100 100 100 100
100 100 100 100 100 100 100 100 100 100 100 100 100 100 100 100 100 100 100 100 100 100 100 100 100 100 100 100 100 100 100 100 100 100 100 100 100 100 100 100 100 100 100
100 100 100 100 100 100 100 100 100 100 100 100 100 100 100 100 100 100 100 100 100 100 100 100 100 100 100 100 100 100 100 100 100 100 100 100 100 100 100 100 100 100 100
37 68 86 90 100 100 100 100 100 100 100 100 100 100 100 100 100 100 100 100 100 100 100 100 100 100 100 100 100 100 100 100 100 100 100 100 100 100 100 100 100 100 100
100 100 98 100 100 100 100 98 100 100 100 100 100 100 100 100 100 100 100 100 100 100 100 100 100 100 100 100 100 100 100 100 100 100 100 100 100 100 100 100 100 100 100

GFSMW_prec_cloud_072.txt.gz
Cloud_Cover
0 0 0 38 96 100 100 100 69 100 100 100 100 100 100 100 100 100 100 100 100 100 100 100 100 100 100 100 100 100 100 100 100 100 100 100 97 94 94 100 100 100 100
1 0 0 0 74 100 100 100 100 96 100 100 100 100 100 100 100 100 100 100 100 100 78 98 98 100 100 100 100 100 100 100 100 100 100 100 100 100 100 100 100 100 98
1 0 0 0 0 92 100 100 100 100 100 100 100 100 100 100 100 100 100 100 100 100 100 100 100 100 100 100 100 100 100 100 100 100 100 100 100 100 100 100 100 95 57
0 0 0 0 0 20 100 100 100 100 100 100 100 100 100 100 100 100 100 100 100 100 100 100 100 100 100 100 100 100 100 100 100 100 100 100 100 100 100 99 100 15 59
0 0 0 0 0 0 100 100 100 98 100 100 100 100 98 100 100 100 100 100 100 100 100 100 100 100 100 100 100 100 100 100 100 100 100 82 100 100 100 100 99 100 100
2 0 0 0 0 0 98 100 100 100 100 100 100 100 100 86 100 96 99 100 100 100 100 100 97 100 100 100 100 100 100 100 100 100 100 100 100 100 100 100 99 100 100
1 0 0 0 0 0 23 73 100 100 100 100 100 100 100 100 100 100 100 100 100 100 100 97 100 90 100 100 100 100 100 100 100 100 100 100 100 100 100 100 100 100 100
4 0 0 0 0 0 0 44 27 99 100 100 100 100 100 100 99 100 100 100 100 100 100 100 100 100 100 100 100 100 100 100 100 100 100 100 100 97 100 100 100 100 100
5 2 0 0 0 0 0 0 3 71 99 100 100 100 100 100 100 78 94 100 100 75 100 100 100 100 100 100 100 100 100 100 100 100 100 100 100 100 100 100 100 100 100
15 5 24 1 0 4 0 0 0 0 2 46 100 100 100 100 98 50 79 100 100 100 100 100 100 100 100 100 100 100 96 100 100 100 100 100 100 100 100 100 100 100 76
100 100 100 97 0 100 19 1 0 0 0 0 10 86 100 100 100 19 26 38 24 22 80 100 100 100 100 100 100 100 100 100 100 100 100 100 100 100 100 100 100 100 70
100 53 40 100 100 100 79 100 99 5 0 0 0 0 73 100 100 68 34 46 8 37 7 1 6 68 100 100 100 100 100 100 100 100 100 100 100 100 100 100 87 94 99
5 4 0 10 92 100 100 100 84 100 15 0 0 0 0 0 17 0 0 19 13 0 0 1 4 5 3 4 47 88 86 92 73 64 40 75 95 100 86 100 99 93 100
77 49 5 5 4 14 94 83 2 87 100 89 3 2 0 0 0 0 0 1 2 28 1 0 0 1 5 5 5 5 13 45 14 66 56 78 89 42 100 100 99 100 100
100 100 98 83 75 36 5 3 0 1 63 100 100 88 21 7 1 0 0 0 0 9 76 4 1 0 0 0 1 4 5 5 5 47 5 5 5 55 100 95 100 100 100
5 5 56 100 59 98 37 31 20 5 0 0 4 5 22 100 54 12 3 0 0 26 100 100 96 18 4 0 5 5 4 5 5 5 47 25 21 18 13 100 100 100 100
100 82 74 12 7 13 14 15 5 5 5 5 5 3 4 4 55 93 63 13 21 6 19 21 5 21 100 100 100 100 88 10 13 48 93 88 34 19 100 98 100 100 100
100 100 100 100 45 84 96 93 27 69 94 94 69 39 46 58 59 6 49 100 100 88 100 99 79 46 73 61 100 100 100 100 97 73 93 87 88 100 99 100 100 100 100
100 100 100 100 100 100 100 98 100 79 74 52 60 89 89 63 56 78 100 100 66 81 45 67 92 100 100 100 100 100 100 100 100 100 100 100 100 100 100 100 100 100 100
100 100 100 100 100 100 88 98 100 100 100 90 56 9 5 5 22 11 79 76 100 100 84 100 100 100 100 100 100 100 100 100 100 100 100 100 100 100 100 100 100 100 100
100 100 100 100 100 100 100 100 100 100 100 100 100 89 50 45 91 40 42 87 29 58 99 100 100 100 100 100 100 100 100 100 100 100 100 100 100 100 100 100 100 100 100
99 95 51 99 100 100 100 100 100 100 100 100 100 100 100 98 100 100 100 99 100 100 100 100 100 100 100 100 100 100 100 100 100 100 100 100 100 100 100 100 100 100 100
100 100 100 90 88 100 100 100 100 100 100 100 100 100 100 100 100 100 100 100 100 100 100 100 100 100 100 100 100 100 100 100 100 100 100 100 100 100 100 100 100 100 100
44 46 76 88 100 100 100 100 100 100 100 100 100 100 100 100 100 100 100 100 100 100 100 100 100 100 100 100 100 100 100 100 100 100 100 100 100 100 100 100 100 100 100
100 100 100 100 100 100 100 100 100 100 100 100 100 100 100 100 100 100 100 100 100 100 100 100 100 100 100 100 100 100 100 100 100 100 100 100 100 100 100 100 100 100 100
100 100 100 100 100 100 100 100 100 100 100 100 100 98 100 100 100 100 100 100 100 100 100 100 100 100 100 100 100 100 100 100 100 100 100 100 100 100 100 100 100 100 100

GFSMW_prec_cloud_075.txt.gz
Cloud_Cover
0 0 0 0 19 100 100 100 100 100 98 100 100 100 100 100 100 100 100 100 100 100 100 100 100 60 100 100 100 100 100 100 100 100 100 100 100 97 100 99 24 100 98
0 0 0 0 3 63 100 100 100 100 99 84 99 100 100 100 100 100 100 100 100 100 100 100 100 100 100 99 97 100 100 100 100 100 100 100 100 93 40 88 99 98 100
1 0 0 0 10 62 96 100 100 100 99 100 100 100 100 100 100 100 100 100 100 100 100 100 100 100 100 100 100 100 100 100 100 100 100 100 99 78 100 88 100 100 100
5 0 0 0 0 1 80 100 100 100 76 99 100 100 100 100 100 100 100 100 100 100 100 100 100 100 100 100 100 100 100 100 100 100 100 100 100 100 100 100 100 100 100
34 0 0 0 0 0 88 100 100 100 100 100 100 100 100 100 100 100 100 100 100 100 100 100 100 100 100 100 100 100 100 100 100 100 100 100 100 100 100 100 100 100 100
7 5 0 0 0 0 80 67 100 100 100 100 100 100 100 100 100 100 100 100 100 100 100 100 100 100 100 100 100 100 94 96 100 100 100 100 100 100 100 100 100 100 100
5 5 2 0 0 0 48 100 100 100 97 100 100 100 100 100 100 100 100 100 100 100 100 100 100 100 100 100 100 100 100 99 100 100 100 100 100 100 100 100 100 100 100
5 5 5 0 0 0 0 100 100 99 100 100 100 100 100 100 100 100 100 100 100 100 100 100 98 100 100 100 100 100 100 97 100 100 100 100 100 100 100 100 100 100 100
88 5 5 3 0 0 0 14 96 100 100 100 100 100 100 100 100 100 100 100 100 100 100 100 100 100 100 100 100 100 100 100 100 100 100 100 100 100 100 100 100 100 100
6 10 5 5 1 11 1 0 0 12 59 98 100 100 100 100 100 100 100 100 100 100 98 100 100 100 100 100 100 100 100 100 100 100 100 100 100 100 100 100 100 98 100
5 5 70 70 100 100 5 29 12 55 9 0 66 100 100 100 100 100 82 94 100 100 92 100 98 100 100 100 100 100 100 100 100 100 100 100 100 100 100 100 100 100 100
20 6 97 100 98 66 100 100 100 100 100 36 0 2 88 100 100 100 100 5 1 0 1 2 1 5 37 100 100 100 100 92 84 96 100 100 100 100 100 100 100 100 100
58 100 98 100 80 13 39 72 100 83 53 5 94 7 0 26 100 100 100 100 30 0 0 0 0 0 1 4 5 5 38 96 100 100 100 100 100 100 100 100 100 48 95
62 90 72 32 63 74 8 5 6 78 100 5 29 42 3 0 7 97 100 100 61 1 0 4 3 5 0 0 0 4 4 5 5 5 10 27 37 52 28 8 62 95 94
100 100 28 22 24 17 5 5 4 2 1 1 1 1 68 60 75 5 48 81 74 40 0 0 2 29 35 5 0 0 0 0 0 1 2 5 18 98 100 59 68 87 88
100 92 99 30 57 5 42 100 44 2 4 5 0 0 0 0 0 2 0 0 1 18 47 21 6 1 0 0 1 4 5 14 100 100 100 51 7 4 74 69 68 100 100
99 100 100 93 100 80 10 5 5 49 91 71 6 5 11 5 3 4 5 3 0 1 4 23 39 71 52 9 6 5 9 2 3 4 18 70 100 100 100 100 100 100 100
15 33 98 78 94 98 90 75 80 67 41 90 89 66 51 45 60 11 5 5 5 5 28 14 96 96 59 60 71 95 100 100 94 96 98 98 100 100 100 100 100 100 100
96 95 98 100 100 100 99 99 24 29 95 73 53 41 100 97 50 91 98 5 5 5 14 100 96 64 97 100 98 80 100 100 100 100 100 100 100 100 100 100 100 100 100
100 100 100 100 100 100 100 100 100 100 100 100 100 100 100 96 59 96 67 98 100 100 94 92 62 99 100 100 100 100 100 100 100 100 100 100 100 100 100 100 100 100 100
100 100 100 100 100 100 100 100 100 100 100 100 100 90 95 90 100 100 100 100 100 100 100 100 100 100 100 100 100 100 100 100 100 100 100 100 100 100 100 100 100 100 100
100 100 100 100 100 100 100 100 100 100 100 100 70 99 96 98 100 100 100 100 100 100 100 100 100 100 100 100 100 100 100 100 100 100 100 100 100 100 100 100 100 100 100
100 100 100 100 100 100 100 100 100 100 100 100 100 100 100 94 96 73 100 100 100 100 100 100 100 100 100 100 100 100 100 100 100 100 100 100 100 100 100 100 100 100 100
100 100 100 100 100 100 100 100 100 100 100 86 71 56 99 98 85 100 100 100 100 100 100 100 100 100 100 100 100 100 100 100 100 100 100 100 100 100 100 100 100 100 100
100 100 100 100 100 100 100 100 100 100 100 100 100 100 94 100 100 100 100 100 100 100 100 100 100 100 100 100 100 100 100 100 100 100 100 100 100 100 100 100 100 100 100
100 100 100 100 100 100 100 100 100 100 100 100 100 100 100 100 100 100 100 100 100 100 100 99 100 100 100 100 100 100 100 100 100 100 100 100 100 100 100 100 100 100 100

GFSMW_prec_cloud_078.txt.gz
Cloud_Cover
1 0 0 66 81 45 21 41 99 100 97 100 100 100 100 100 100 100 100 100 100 100 100 100 100 100 100 100 100 97 100 100 100 100 100 100 100 97 91 100 100 100 98
0 0 23 100 99 94 42 53 68 100 100 100 100 100 100 100 100 100 100 100 100 100 100 100 100 100 100 100 100 100 100 100 100 100 100 100 100 100 100 98 99 99 100
0 0 33 99 100 100 92 100 66 100 100 100 100 100 100 100 100 100 100 100 100 100 100 100 100 100 100 100 100 100 100 100 100 100 100 100 100 100 100 100 95 70 100
1 0 4 100 100 92 52 58 64 100 100 100 100 100 100 100 100 100 100 100 100 100 100 100 100 100 100 100 100 100 97 79 78 86 100 100 100 100 97 100 100 100 100
5 3 5 27 72 62 64 21 28 76 100 100 99 100 100 100 100 100 100 100 100 100 100 100 100 100 100 100 100 100 100 83 100 100 100 100 100 100 100 100 100 100 100
5 5 5 3 36 50 36 55 100 100 100 100 42 100 100 100 100 100 100 100 100 100 100 100 100 100 100 100 100 100 100 96 95 100 100 100 100 100 100 100 100 99 100
5 2 10 5 10 66 55 47 100 100 100 100 65 40 46 86 100 100 100 100 100 100 100 100 100 100 100 100 100 100 100 92 96 100 100 100 99 100 100 100 100 100 100
71 5 5 5 4 39 56 27 100 100 100 100 100 98 59 41 34 94 65 100 100 100 100 100 100 100 100 100 99 100 100 100 100 100 86 94 100 100 100 100 100 100 100
18 5 0 5 1 12 36 10 29 100 100 100 100 100 100 100 100 100 84 49 52 54 100 100 100 100 100 100 100 99 96 91 97 99 100 100 100 100 100 100 100 100 100
5 5 0 5 0 5 4 1 3 99 100 100 100 100 100 100 100 100 100 100 99 78 79 100 100 100 100 100 100 100 99 100 100 100 100 100 100 100 100 100 100 100 99
16 28 4 4 5 5 18 98 5 53 100 100 99 100 100 100 100 66 67 100 100 100 100 100 100 100 100 100 100 100 100 100 100 98 100 100 100 100 100 100 100 100 100
100 84 68 5 5 50 100 72 81 100 100 100 99 96 100 100 100 100 100 53 14 8 22 98 100 100 100 100 100 100 100 91 99 100 100 95 82 100 95 54 100 100 100
100 97 24 7 25 90 100 100 19 72 100 98 62 6 5 67 98 100 100 100 98 58 14 20 0 0 5 47 31 64 94 83 35 9 16 81 100 100 100 100 100 100 100
100 100 100 100 100 98 98 87 9 8 4 41 37 16 22 5 4 61 98 100 100 100 100 42 32 1 9 1 14 25 15 16 10 5 5 5 14 5 9 18 10 30 55
100 100 100 100 100 80 61 17 5 41 88 15 19 0 0 1 0 3 6 89 98 100 100 100 89 28 0 0 0 1 4 1 1 2 1 4 1 56 97 37 5 5 63
100 100 100 100 94 100 100 100 100 57 62 96 26 37 27 93 26 0 0 0 0 19 99 100 100 36 19 17 0 0 4 1 0 0 0 0 2 38 11 5 5 5 7
100 100 100 100 100 100 100 67 58 96 100 100 100 91 79 49 54 70 72 37 29 20 15 8 7 19 6 5 5 17 58 13 4 12 10 5 5 5 5 5 6 20 30
100 99 100 100 100 100 100 100 74 50 28 18 42 81 99 100 100 99 76 98 94 92 98 97 42 16 9 6 56 83 29 80 86 100 85 84 43 46 45 80 38 83 100
100 100 94 100 100 100 100 100 100 100 100 100 100 96 100 100 100 100 100 100 98 98 100 100 100 80 100 99 96 93 100 100 100 100 100 100 100 100 100 100 100 100 100
100 100 38 63 84 100 99 100 100 100 100 100 100 100 100 100 100 100 100 100 100 100 100 100 100 100 100 100 100 100 100 100 100 89 100 100 100 100 100 100 100 100 100
100 100 99 75 100 100 100 100 100 100 83 64 78 92 100 100 100 100 100 100 100 100 100 100 100 100 100 100 100 100 100 100 100 100 100 100 100 100 100 100 100 100 100
100 100 86 100 100 100 100 100 100 100 100 94 82 67 85 88 100 100 100 100 100 100 100 100 100 100 100 100 100 100 100 100 100 100 100 100 100 100 100 100 100 100 100
100 100 100 100 100 100 100 100 100 100 100 100 100 100 100 100 100 100 100 100 100 100 100 100 100 100 100 100 100 100 100 100 100 100 100 100 100 100 100 100 100 100 100
99 100 100 100 100 100 100 100 100 100 100 100 99 100 100 100 100 100 100 100 99 96 100 100 100 100 100 100 100 100 100 100 100 100 100 100 100 100 100 100 100 100 100
100 100 100 100 100 100 100 100 96 83 92 97 82 87 100 100 100 100 100 100 100 100 100 100 100 100 100 100 100 100 100 100 100 100 100 100 100 100 100 100 100 100 100
100 99 100 100 100 100 100 100 98 96 100 100 100 100 100 100 100 100 100 100 100 100 100 100 100 100 97 79 91 99 100 100 99 96 82 99 100 100 100 100 100 100 100

GFSMW_prec_cloud_081.txt.gz
Cloud_Cover
56 3 2 46 62 41 74 100 100 100 100 96 100 100 100 100 100 100 100 100 100 100 100 100 100 100 100 100 100 100 99 85 95 100 95 100 100 100 100 100 100 100 100
100 6 52 99 94 74 70 100 100 100 100 100 100 100 100 100 100 100 100 100 100 100 100 100 100 100 100 100 100 98 85 77 100 100 100 100 100 100 100 100 100 100 100
100 17 79 100 100 100 100 100 100 69 100 48 100 100 100 100 100 100 100 100 100 100 100 100 100 100 100 100 100 100 100 97 100 99 100 93 100 100 100 100 100 100 100
96 2 51 100 100 100 100 100 48 54 99 87 100 100 100 100 100 100 100 100 100 100 100 100 100 100 100 100 100 100 100 100 100 100 100 100 100 100 100 100 100 100 100
66 5 28 61 100 100 100 100 20 76 100 100 100 100 100 100 100 100 100 100 100 100 100 100 100 100 100 100 100 100 100 100 100 95 100 100 100 100 100 100 100 100 100
5 4 43 99 100 100 100 100 80 100 100 100 100 100 100 100 100 100 100 100 100 100 100 100 100 100 100 100 100 100 100 95 97 100 100 99 100 100 100 100 100 100 100
91 5 85 100 100 100 100 99 70 100 97 98 98 100 100 100 100 100 100 100 100 100 100 100 100 100 100 100 100 100 100 100 100 100 100 100 100 100 100 100 100 100 100
100 4 24 65 95 100 100 72 52 52 63 75 100 100 100 100 100 100 100 100 100 100 100 100 100 100 100 100 100 100 100 100 100 100 100 100 100 100 100 100 100 100 93
77 5 5 60 69 100 100 20 16 31 56 70 93 100 100 100 100 100 100 100 100 100 100 100 100 100 100 100 100 100 100 100 100 100 100 100 100 100 100 100 100 100 100
95 5 32 71 14 72 94 24 8 24 24 65 59 89 87 60 99 63 79 100 100 100 100 100 100 100 100 100 100 100 100 100 100 100 100 100 100 100 100 100 100 100 100
100 61 62 61 7 37 75 55 34 52 3 22 100 82 27 40 96 100 48 100 100 100 100 100 100 100 100 100 100 100 100 100 100 100 100 100 100 100 100 100 100 100 100
100 94 98 92 5 16 47 37 22 100 96 100 100 100 100 63 50 77 3 0 7 78 100 100 100 100 100 100 100 100 100 100 100 100 100 100 100 100 100 100 100 100 100
62 92 9 6 92 94 81 69 100 100 100 100 100 100 100 100 52 18 5 5 0 0 0 4 8 16 50 68 47 35 87 98 98 100 100 99 100 100 100 100 100 100 100
93 54 49 94 99 98 93 98 100 100 98 46 24 38 17 20 70 92 100 100 100 89 15 5 0 0 0 0 0 2 4 5 5 17 82 98 98 36 22 41 36 45 100
100 99 100 100 100 100 100 100 100 100 100 17 58 53 7 5 2 5 10 30 68 93 100 100 98 76 32 4 14 17 0 1 22 33 33 28 5 5 5 28 17 5 33
100 100 100 100 100 100 100 100 100 86 76 69 50 29 72 67 58 5 44 21 1 1 5 68 99 100 100 100 81 68 81 75 4 4 3 16 59 34 55 62 47 70 66
100 100 100 100 100 100 100 100 100 100 100 100 100 100 100 91 98 38 37 89 72 59 72 42 20 16 27 53 89 98 71 35 39 5 4 5 5 10 8 7 19 24 16
100 100 100 100 100 100 100 100 100 100 100 100 100 100 100 100 100 100 100 100 100 100 100 100 100 100 100 100 100 94 100 89 48 30 20 54 76 90 100 100 100 100 100
100 100 100 100 100 100 100 100 100 100 100 100 100 100 100 100 100 100 100 100 100 100 100 100 100 100 100 100 100 100 100 100 100 100 100 100 100 100 100 100 100 100 100
100 100 100 100 100 100 100 100 100 100 100 100 100 100 100 100 100 100 100 100 100 100 100 100 100 100 100 100 100 100 100 100 100 100 100 100 100 100 100 100 100 100 100
100 100 100 100 100 100 100 100 100 100 100 100 100 100 100 100 100 100 100 100 100 100 100 100 100 100 100 100 100 100 100 100 100 100 100 100 100 100 100 100 100 100 100
100 100 100 100 100 100 100 100 100 100 100 100 99 100 100 100 100 100 100 100 100 100 100 100 100 100 100 100 100 100 100 100 100 100 100 100 100 100 100 100 100 100 100
100 100 100 100 100 100 100 100 100 100 100 100 100 100 100 100 100 100 100 100 100 100 100 100 100 100 100 100 99 100 97 100 100 100 100 100 100 100 100 100 100 100 100
100 100 100 100 100 100 100 100 100 100 100 100 99 91 98 100 100 100 100 100 100 100 100 100 100 100 100 100 100 88 92 100 100 100 100 100 100 100 100 100 100 100 100
100 100 100 100 100 100 100 100 100 100 100 100 92 90 97 100 100 100 100 100 100 100 100 100 100 100 100 100 98 100 100 100 100 100 100 100 100 100 100 100 100 100 100
100 100 100 100 100 100 100 100 100 100 100 100 100 98 93 99 100 99 100 100 100 100 98 88 79 100 100 99 100 100 100 98 97 100 100 100 100 100 100 100 100 100 100

GFSMW_prec_cloud_084.txt.gz
Cloud_Cover
0 8 24 43 68 52 83 100 52 45 100 100 100 100 100 100 100 100 100 100 100 100 100 100 100 100 100 100 100 100 100 100 79 38 38 99 54 48 93 100 100 62 100
10 100 87 96 84 94 100 100 98 25 56 61 56 100 100 100 100 100 100 100 100 100 100 100 100 100 100 100 100 100 86 68 96 71 51 53 22 100 100 100 100 100 100
93 100 92 53 80 100 100 100 92 80 100 100 94 100 100 100 100 100 100 100 100 100 100 100 100 100 100 100 100 100 100 100 100 100 71 97 100 100 100 100 100 100 100
100 93 52 78 74 100 100 100 100 100 100 100 100 100 100 100 100 100 100 100 100 100 100 100 100 100 100 100 100 100 100 100 100 100 100 100 100 100 100 100 100 100 100
100 100 100 88 84 98 100 100 100 62 71 99 78 99 100 100 94 100 100 100 100 100 100 100 100 100 100 100 100 100 100 100 100 100 100 100 100 100 100 100 100 100 100
100 21 58 7 75 100 100 100 100 81 100 100 100 100 100 100 100 100 100 100 100 100 100 100 100 100 100 100 100 100 100 100 100 100 100 100 100 100 100 100 100 100 100
94 32 60 49 81 100 100 100 100 100 100 100 100 100 100 100 100 100 100 100 100 100 100 100 100 100 100 100 100 100 100 100 100 100 100 100 100 100 100 100 100 100 100
98 100 59 27 38 100 100 100 100 100 100 100 100 100 100 100 100 100 100 100 100 100 100 100 100 100 100 100 100 100 100 100 100 100 100 100 100 100 100 100 100 100 100
100 61 99 30 86 100 100 100 100 100 100 88 100 100 100 100 100 100 100 100 100 100 100 100 100 100 100 100 100 100 100 100 100 100 100 100 100 100 100 100 100 100 100
98 100 100 78 100 100 100 100 100 93 100 80 70 100 100 100 100 100 100 100 100 100 100 100 100 100 100 100 100 100 100 100 100 100 100 100 100 100 100 100 100 100 100
100 77 100 97 100 100 100 100 72 58 92 100 85 83 100 100 93 100 99 100 100 100 100 100 100 100 100 100 100 100 100 100 100 100 100 100 100 100 100 100 100 100 100
93 80 100 100 100 100 100 100 72 33 27 94 48 100 100 96 100 100 100 100 100 100 100 100 100 100 100 100 100 100 100 100 100 100 100 100 100 100 100 100 100 99 100
94 100 100 100 100 100 100 100 49 9 24 33 78 100 100 100 100 100 100 76 4 3 52 97 98 99 100 100 100 100 100 100 100 100 100 99 100 100 100 99 90 95 100
100 100 100 100 100 100 100 100 59 82 90 65 19 33 16 53 77 99 86 98 98 48 31 22 9 6 48 98 100 100 100 100 96 95 97 94 100 91 90 100 100 100 100
100 100 100 100 100 100 100 100 99 100 96 100 68 60 23 22 5 5 5 6 17 53 62 30 40 39 45 37 49 51 68 71 55 37 40 22 8 5 5 94 100 100 100
100 100 100 100 100 100 100 100 100 100 100 100 100 98 77 40 21 9 0 0 4 5 13 1 44 75 100 100 100 100 100 73 76 62 65 38 15 23 90 100 100 100 100
100 100 100 100 100 100 100 100 100 100 100 100 100 100 100 100 100 100 100 100 100 100 82 95 98 100 100 100 100 97 99 100 100 100 100 100 85 32 8 33 94 99 100
100 100 100 100 100 100 100 100 100 100 100 100 100 100 100 100 100 100 100 100 100 100 100 100 100 100 100 100 100 100 100 100 100 100 100 100 100 100 100 100 100 100 100
100 100 100 100 100 100 100 100 100 100 100 100 100 100 100 100 100 100 100 100 100 100 100 100 100 100 100 100 100 98 100 100 100 100 100 100 100 100 100 100 100 100 100
100 100 100 100 100 100 100 100 100 100 100 100 100 100 100 100 100 100 100 100 100 100 100 100 100 100 100 100 100 100 100 100 100 100 100 100 100 100 100 100 100 100 100
100 100 100 100 100 100 100 100 100 100 100 100 100 100 100 100 100 100 100 100 100 100 100 100 100 100 100 100 100 100 100 100 100 100 100 100 100 100 100 100 100 100 100
100 100 100 100 100 100 100 100 100 100 100 100 100 100 100 100 100 100 100 100 100 100 100 100 100 100 100 100 100 100 100 100 100 100 100 100 100 100 96 100 100 100 100
100 100 100 100 100 100 100 100 100 100 100 100 100 100 100 100 100 100 100 100 100 100 100 100 100 100 100 100 100 100 100 100 100 100 100 100 100 100 100 100 100 100 100
100 100 100 100 100 100 100 100 100 100 100 100 100 100 100 100 100 99 100 100 100 100 100 100 100 100 100 100 100 100 100 87 87 99 100 98 93 67 96 96 95 100 100
100 100 100 100 100 100 100 100 100 100 100 100 99 100 99 100 100 98 100 98 100 99 99 100 100 100 100 100 99 89 100 97 100 100 100 100 100 100 100 100 100 100 100
100 100 100 100 100 100 100 100 100 100 88 100 100 100 96 100 100 100 100 100 100 100 100 100 100 100 100 100 100 98 93 81 93 91 66 84 89 100 100 99 100 100 86

GFSMW_prec_cloud_087.txt.gz
Cloud_Cover
5 0 0 0 0 0 4 5 62 100 81 100 100 100 100 100 100 100 100 100 100 100 100 100 100 100 100 100 100 100 96 100 100 100 83 75 68 100 98 100 100 100 100
0 0 0 0 0 0 5 84 72 74 100 96 96 100 100 100 100 100 100 100 100 100 100 100 100 100 100 100 100 100 100 100 100 53 73 97 89 93 97 89 100 97 97
0 0 0 0 4 4 50 95 64 5 80 98 81 100 100 100 100 100 100 100 100 100 100 100 100 100 100 100 100 100 100 100 100 100 72 97 92 100 100 100 97 99 98
0 0 0 2 1 48 100 100 16 3 36 41 60 100 97 100 100 100 100 100 100 100 100 100 100 100 100 100 100 100 100 100 100 66 68 100 100 60 71 15 99 76 100
0 0 0 3 17 86 100 100 57 18 35 59 100 59 100 100 100 100 100 100 100 100 100 100 100 100 100 100 100 100 100 100 100 100 100 100 85 96 100 100 100 100 100
0 0 0 75 48 100 100 100 94 69 62 93 100 100 92 100 100 100 100 100 100 100 100 100 100 100 100 100 100 100 100 100 100 100 97 100 78 100 98 100 100 100 100
0 0 32 6 30 100 100 100 100 64 92 100 100 100 100 100 100 100 100 100 100 100 100 100 100 100 100 100 100 100 100 100 100 100 100 100 100 100 100 100 100 100 100
24 25 9 5 46 100 100 100 99 64 99 100 100 100 100 100 100 100 100 100 100 100 100 100 100 100 100 100 100 100 100 100 100 100 100 100 100 100 100 100 100 100 100
100 93 12 5 35 82 100 100 100 58 100 100 100 100 100 100 100 100 100 100 100 100 100 100 100 100 100 100 100 100 100 100 100 100 100 100 100 100 100 100 100 100 100
100 100 100 100 85 78 100 100 100 100 100 100 100 100 100 100 100 100 100 100 100 100 100 100 100 100 100 100 100 100 100 100 100 100 100 100 100 100 100 100 100 100 100
100 100 100 73 87 77 100 100 100 100 100 100 96 100 100 100 100 100 100 100 100 100 100 100 100 100 100 100 100 100 100 100 100 100 100 100 100 100 100 100 100 100 100
100 100 100 100 100 100 100 100 100 100 100 100 64 100 100 100 100 100 100 100 100 100 100 100 100 100 100 100 100 100 100 100 100 100 100 100 100 100 100 100 100 100 100
100 100 100 100 100 100 100 100 100 91 98 100 91 100 100 100 100 100 100 100 100 100 100 100 100 100 100 100 100 100 100 100 100 100 100 100 100 100 100 100 100 97 100
100 100 100 100 100 100 100 100 83 57 55 67 78 100 100 100 100 100 100 100 100 100 100 100 100 100 100 100 100 100 100 100 100 100 100 100 100 100 100 100 100 99 95
100 100 100 100 100 100 100 100 99 91 44 44 61 65 99 55 62 73 69 94 100 100 100 74 43 44 62 59 79 98 100 100 100 100 100 100 39 58 31 75 36 79 94
100 100 100 100 100 100 100 100 100 100 77 100 100 100 87 75 68 70 54 52 48 60 76 93 71 100 100 100 100 100 100 100 100 100 97 100 90 68 89 100 100 100 100
100 100 100 100 100 100 100 100 100 100 100 100 100 100 100 100 100 100 100 100 100 100 100 100 100 100 100 100 98 93 80 96 100 100 100 100 100 100 100 98 100 100 100
100 100 100 100 100 100 100 100 100 100 100 100 100 100 100 100 100 100 100 100 100 100 100 100 100 100 100 100 100 94 100 100 100 100 100 100 100 100 100 100 100 100 100
100 100 100 100 100 100 100 100 100 100 100 100 100 100 100 100 100 100 100 100 100 100 100 100 100 100 100 100 100 100 100 100 100 100 100 100 100 100 100 100 100 100 100
100 100 100 100 100 100 100 100 100 100 100 100 100 100 100 100 100 100 100 100 100 100 100 100 100 100 100 100 100 100 100 100 100 100 100 100 100 100 100 100 100 100 100
100 100 100 100 100 100 100 100 100 100 100 100 100 100 100 100 100 100 100 100 100 100 100 100 100 100 100 100 100 100 100 100 100 100 100 100 100 100 100 100 100 100 100
100 100 100 100 100 100 100 100 100 100 100 100 100 100 100 100 100 100 100 100 100 100 100 100 100 100 100 100 97 100 92 96 96 100 100 100 100 92 100 100 100 100 100
100 100 100 100 100 100 100 100 100 100 100 100 100 100 100 100 100 100 100 100 100 100 100 100 100 100 100 100 100 100 98 97 91 83 97 99 100 100 97 88 100 100 80
100 100 100 100 100 100 100 100 100 100 100 100 100 100 100 100 100 100 100 100 100 100 100 100 100 100 100 100 98 100 100 100 100 100 100 100 100 100 97 92 86 95 99
100 100 100 100 100 100 100 100 100 100 100 100 100 100 100 100 100 100 100 100 100 100 100 100 100 100 100 100 94 82 86 83 67 88 82 81 96 100 94 97 100 100 100
100 100 100 100 100 100 100 100 100 100 100 100 100 100 100 100 100 100 100 100 100 99 100 100 100 100 100 100 100 97 89 46 68 86 95 100 100 100 100 100 100 86 32

GFSMW_prec_cloud_093.txt.gz
Cloud_Cover
100 100 100 85 23 5 5 0 0 0 60 100 100 100 100 100 100 100 100 100 100 100 98 100 100 100 100 100 100 100 100 100 100 100 100 100 100 100 100 98 100 77 89
100 100 100 99 5 2 2 0 0 0 35 100 100 65 98 100 100 100 100 97 100 100 100 100 100 100 100 100 100 100 100 100 100 100 100 100 100 99 98 97 100 100 100
100 100 80 70 52 5 5 0 0 0 65 88 84 96 100 100 100 100 100 85 98 92 100 100 100 100 100 100 100 100 100 100 100 100 100 100 100 100 99 100 100 100 100
96 93 97 100 5 5 5 0 0 0 49 13 12 100 79 100 100 100 74 78 96 100 100 100 100 100 100 100 100 100 100 100 100 100 100 100 100 100 100 100 100 100 100
100 100 99 100 99 65 3 0 0 0 23 0 43 63 82 40 28 70 89 100 100 100 100 100 100 100 100 100 100 100 100 100 100 100 100 100 100 100 100 100 100 100 59
87 58 94 68 22 1 0 0 0 0 16 5 82 62 51 15 18 99 86 100 100 100 100 100 100 100 100 100 100 100 100 100 100 100 100 100 100 100 100 100 100 100 86
100 99 38 5 5 1 0 0 0 0 23 15 66 66 21 16 45 100 83 100 100 100 100 100 100 100 100 100 100 100 100 100 100 100 100 100 100 100 100 100 100 100 100
96 32 5 4 5 0 1 0 0 4 23 91 86 39 37 71 100 86 83 100 100 100 100 100 100 100 100 100 100 100 100 100 100 100 100 100 100 100 100 100 100 100 100
8 46 5 5 5 0 20 3 4 26 81 100 93 52 75 100 99 83 100 97 100 100 100 100 100 100 100 100 100 100 100 100 100 100 100 100 100 100 100 100 100 100 94
6 90 52 5 9 3 33 93 100 100 100 100 96 55 100 96 75 99 100 100 100 100 100 100 100 100 100 100 100 100 100 100 100 100 100 100 100 100 100 100 100 100 100
22 100 80 62 73 34 95 100 100 100 100 100 99 99 100 85 64 86 100 100 100 100 100 100 100 100 100 100 100 100 100 100 100 100 100 100 100 100 98 100 88 99 100
32 100 100 100 100 87 100 100 97 100 100 100 100 100 100 78 95 100 100 100 100 100 100 100 100 100 100 100 100 100 100 100 100 100 100 100 100 100 99 100 100 100 100
34 100 100 100 100 100 100 100 100 100 100 100 100 100 100 82 100 100 100 100 100 100 100 100 100 100 100 100 100 100 100 100 100 100 100 99 100 100 100 100 100 100 100
54 100 100 100 100 100 100 100 100 100 100 100 100 100 100 75 80 100 100 100 100 100 100 100 100 100 100 100 100 100 100 100 100 100 100 91 100 100 100 100 100 100 100
48 100 100 100 100 100 100 100 100 100 100 100 100 100 100 34 100 100 100 100 100 100 100 100 100 100 100 100 100 100 100 100 100 100 100 100 100 100 100 100 100 100 100
92 100 100 100 100 100 100 100 100 100 87 100 100 100 100 88 100 100 100 100 100 100 100 100 100 100 100 100 100 100 100 100 100 100 100 100 100 100 100 100 100 100 100
100 100 100 100 100 100 100 100 100 100 100 100 100 100 100 100 100 100 100 100 100 100 100 100 100 100 100 100 100 100 100 100 100 100 100 100 100 100 100 100 100 100 100
100 100 100 100 100 100 100 100 100 100 100 100 100 100 100 100 100 100 100 100 100 100 100 100 100 100 100 100 100 100 100 100 100 100 100 100 100 100 100 100 100 100 100
100 100 100 100 100 100 100 100 100 100 100 100 100 100 100 100 100 100 100 100 100 100 100 100 100 100 100 100 100 100 100 100 100 100 100 100 100 100 100 100 100 100 100
100 100 100 100 100 100 100 100 100 100 100 100 100 100 100 100 100 100 100 100 100 100 100 100 100 100 100 100 100 100 100 100 100 100 100 100 100 100 100 100 100 100 100
100 100 100 100 100 100 100 100 100 100 100 100 100 100 100 100 100 100 100 100 100 100 100 100 100 100 100 100 100 100 100 100 100 100 100 100 100 100 100 100 100 100 100
100 100 100 100 100 100 100 100 100 100 100 100 100 100 100 100 100 100 100 100 100 100 100 100 100 100 100 100 100 100 100 100 100 100 100 100 100 100 100 86 100 100 100
100 100 100 100 100 100 100 100 100 100 100 100 100 100 100 100 100 100 100 100 100 100 100 100 100 100 100 100 99 100 100 100 100 100 100 100 100 98 100 100 100 100 100
100 100 100 100 100 100 100 100 100 100 100 100 100 100 100 100 100 100 100 100 100 100 100 100 100 100 100 100 100 100 100 100 100 100 99 100 100 100 100 100 97 95 100
100 100 100 100 100 100 100 100 100 100 100 100 100 100 100 100 100 100 100 100 100 100 100 100 100 100 100 100 100 100 100 100 100 100 100 100 100 100 100 100 95 92 97
100 100 100 100 100 100 100 100 100 100 100 100 100 100 100 100 100 100 100 100 100 100 100 100 100 100 100 100 100 100 98 100 100 100 100 100 100 100 100 99 99 71 9

GFSMW_prec_cloud_096.txt.gz
Cloud_Cover
100 67 99 99 100 100 100 100 100 100 100 9 38 100 100 100 100 97 49 61 100 100 100 100 55 87 100 100 100 100 100 100 100 100 100 100 100 100 100 100 100 100 89
100 100 100 100 100 100 100 100 100 100 77 4 97 86 100 100 100 100 82 100 100 100 100 83 66 100 100 100 100 100 100 100 100 100 100 100 100 100 100 100 100 100 93
100 100 100 100 100 100 100 100 100 82 6 18 92 71 100 100 100 100 88 100 100 100 100 100 100 100 100 100 100 100 100 100 100 100 100 100 100 100 100 100 94 98 100
94 100 100 100 100 100 100 100 100 56 5 0 97 25 43 98 72 97 100 100 96 50 59 96 100 100 100 100 100 100 100 100 100 100 100 100 100 100 100 100 100 99 100
100 100 100 100 100 100 100 100 95 1 5 0 0 0 34 34 88 99 100 100 100 100 95 94 100 100 100 100 100 100 100 100 100 100 100 100 100 100 100 100 100 100 100
100 100 100 100 100 100 100 73 8 0 4 0 0 35 14 9 7 3 8 20 68 37 100 100 100 100 100 100 100 100 100 100 100 100 100 100 100 100 100 100 100 100 100
100 100 100 100 100 100 84 8 5 0 3 0 0 67 94 90 92 39 4 41 87 98 100 100 100 100 100 100 100 100 100 100 100 100 100 100 100 100 100 100 100 100 100
100 100 100 100 100 95 100 100 5 0 0 0 13 96 100 100 100 49 3 71 100 100 100 100 100 100 100 100 100 100 100 100 100 100 100 100 100 100 100 100 100 100 100
100 100 100 100 100 84 96 14 2 0 42 100 100 100 100 100 91 17 84 80 100 100 100 100 100 100 100 100 100 100 100 100 100 100 100 100 100 100 100 100 100 100 100
100 89 100 99 92 41 5 20 2 47 100 100 100 100 100 100 100 100 58 100 100 100 100 100 100 100 100 100 100 100 100 100 100 100 100 100 100 100 100 100 100 100 100
100 88 81 99 94 57 56 21 8 100 100 100 100 100 100 100 100 60 97 85 100 80 100 100 100 100 100 100 100 100 100 100 100 100 100 100 100 100 100 100 100 100 100
100 96 100 100 100 100 80 0 96 100 100 100 100 100 100 100 100 100 100 98 100 100 100 100 100 100 100 100 100 100 100 100 100 100 100 100 100 100 100 100 100 100 99
100 100 100 100 100 100 100 65 100 100 100 100 100 100 100 100 100 84 100 100 100 100 100 100 100 100 100 100 100 100 100 100 100 100 100 100 100 100 100 100 100 100 95
100 97 100 100 100 100 100 100 100 100 100 100 100 100 100 100 100 100 73 100 100 100 100 100 100 100 100 100 100 100 100 100 100 100 100 100 100 100 100 100 100 100 100
100 100 100 100 100 100 100 100 100 100 100 100 100 100 100 100 58 82 81 100 100 100 100 100 100 100 100 100 100 100 100 100 100 100 100 100 100 100 100 100 100 100 100
100 100 100 100 100 100 100 100 100 100 100 100 100 100 100 100 100 100 100 100 100 100 100 100 100 100 100 100 100 100 100 100 100 100 100 100 100 100 100 100 100 100 100
100 100 100 100 100 100 100 100 100 100 100 100 100 100 100 100 100 100 100 100 100 100 100 100 100 100 100 100 100 100 100 100 100 100 100 100 100 100 100 100 100 100 100
100 100 100 100 100 100 100 100 100 100 100 100 100 100 100 100 100 100 100 100 100 100 100 100 100 100 100 100 100 100 100 100 100 100 100 100 100 100 100 100 100 100 100
100 100 100 100 100 100 100 100 100 100 100 100 100 100 100 100 100 100 100 100 100 100 100 100 100 100 100 100 100 100 100 100 100 100 100 100 100 100 100 100 100 100 100
100 100 91 70 99 99 100 100 100 100 100 100 100 100 100 100 100 100 100 100 100 100 100 100 100 100 100 100 100 100 100 100 100 100 100 100 100 100 100 100 100 100 100
100 94 89 99 100 100 100 100 100 100 100 100 100 100 100 100 100 100 100 100 100 100 100 100 100 100 100 100 100 100 100 100 100 100 100 100 100 100 100 100 100 100 100
100 89 99 100 100 100 100 100 100 100 100 100 100 100 100 100 100 100 100 100 100 100 100 100 100 100 100 100 100 100 100 100 100 100 100 100 100 100 100 100 100 100 100
100 100 100 100 100 100 100 100 100 100 100 100 100 100 100 100 100 100 100 100 100 100 100 100 100 100 100 100 100 100 100 100 100 100 100 100 100 100 100 100 100 100 100
100 100 100 100 100 100 100 100 100 100 100 100 100 100 100 100 100 100 100 100 100 100 100 100 100 100 100 100 100 100 100 100 100 100 96 85 92 99 98 79 92 99 100
100 100 100 100 100 100 100 100 100 100 100 100 100 100 100 100 100 100 100 100 100 100 100 100 100 100 100 100 100 100 100 100 100 100 100 100 98 100 96 90 100 100 98
100 100 100 100 100 100 100 100 100 100 100 100 100 100 100 100 100 100 100 100 100 100 100 100 100 100 100 100 100 100 100 100 100 100 100 100 100 96 98 100 100 100 98

GFSMW_prec_cloud_099.txt.gz
Cloud_Cover
94 100 100 100 100 100 100 100 100 100 100 100 100 99 43 46 100 58 0 88 100 100 40 47 100 100 100 100 100 100 100 100 100 100 100 100 100 100 100 100 100 100 100
22 29 97 99 100 100 100 100 100 100 100 100 38 80 100 100 98 100 100 75 100 100 100 100 100 100 100 100 100 100 100 100 100 100 100 100 100 100 100 100 100 100 100
20 17 100 100 77 100 98 100 100 100 100 100 98 100 100 100 89 100 100 100 100 100 100 100 100 100 100 99 100 100 100 100 100 100 100 100 100 100 100 100 100 100 100
58 5 76 100 100 100 100 88 100 100 100 100 100 100 100 96 36 98 100 100 100 100 100 100 100 100 100 100 100 100 100 100 100 100 100 100 100 100 100 100 100 100 100
5 100 100 100 100 100 100 100 100 100 100 100 100 100 98 5 5 99 100 100 100 100 100 100 100 100 100 100 99 100 100 100 100 100 100 100 100 100 100 100 100 100 100
55 100 100 100 100 100 100 100 100 100 100 99 100 48 5 5 56 100 99 100 100 100 100 100 57 85 80 100 100 100 100 96 100 100 100 100 100 100 100 100 100 100 100
100 100 100 100 100 100 100 100 100 100 100 88 86 5 5 5 62 36 24 74 79 88 100 100 100 100 100 100 100 100 100 80 100 100 100 100 100 100 100 100 100 100 100
100 100 100 100 100 100 100 100 100 100 100 100 18 92 28 5 28 100 17 32 76 100 100 73 100 89 100 100 100 100 100 100 100 100 100 100 100 100 100 100 100 100 100
100 100 100 100 100 100 100 100 44 92 91 49 98 100 53 8 100 100 97 81 44 55 51 98 100 100 100 100 100 100 100 100 100 100 100 100 100 100 100 100 100 100 100
100 100 100 100 100 100 100 99 87 100 100 7 95 63 9 100 100 100 100 60 3 11 91 100 100 100 100 100 100 100 100 100 100 100 100 100 100 100 100 100 100 100 100
100 100 100 100 100 100 100 97 70 94 19 64 63 100 100 100 100 100 99 24 52 100 100 83 100 100 100 100 100 100 100 100 100 100 100 100 100 100 100 100 100 100 100
100 100 100 100 100 100 100 100 100 99 83 57 100 100 100 100 100 100 100 74 97 100 58 100 100 100 100 100 100 100 100 100 100 100 100 100 100 100 100 100 100 100 100
100 100 100 100 100 100 100 97 100 100 100 100 100 100 100 100 100 100 83 100 100 100 100 100 100 100 100 100 100 100 100 100 100 100 100 100 100 100 100 100 100 100 100
100 100 100 100 100 100 100 100 100 100 100 100 100 100 100 100 100 100 98 100 100 100 100 100 100 100 100 100 100 100 100 100 100 100 100 100 100 100 100 100 100 100 100
100 100 100 100 100 100 100 100 100 100 100 100 100 100 100 100 100 86 44 100 100 100 100 100 100 100 100 100 100 100 100 100 100 100 100 100 100 100 100 100 100 100 100
100 100 100 100 100 100 100 100 100 100 100 100 100 100 100 100 100 100 100 100 100 100 100 100 100 100 100 100 100 100 100 100 100 100 100 100 100 100 100 100 100 100 100
100 100 100 100 100 100 100 100 100 100 100 100 100 100 100 100 100 100 100 100 100 100 100 100 100 100 100 100 100 100 100 100 100 100 100 100 100 100 100 100 100 100 100
100 100 100 100 100 100 100 100 100 100 100 100 100 100 100 100 100 100 100 100 100 100 100 100 100 100 100 100 100 100 100 100 100 100 100 100 100 100 100 100 100 100 100
100 100 100 100 100 100 100 100 100 100 100 100 100 100 100 100 100 100 100 100 100 100 100 100 100 100 100 100 100 100 100 100 100 100 100 100 100 100 100 100 100 100 100
100 99 100 100 100 100 100 89 100 100 100 100 100 100 100 100 100 100 100 100 100 100 100 100 100 100 100 100 100 100 100 100 100 100 100 100 100 100 100 100 100 100 100
99 96 100 100 100 100 100 92 100 100 100 100 100 100 100 100 100 100 100 100 100 100 100 100 100 100 100 100 100 100 100 100 100 100 100 100 100 100 100 100 100 100 100
100 100 100 99 100 100 99 100 96 100 100 100 100 100 100 100 100 100 100 100 100 100 100 100 100 100 100 100 100 100 100 100 100 100 100 100 100 100 100 100 100 100 100
100 100 100 100 100 97 100 96 100 100 100 100 100 100 100 100 100 100 100 100 100 100 100 100 100 100 100 100 100 100 100 100 100 100 100 100 100 100 100 100 100 100 100
100 100 99 100 100 93 89 100 100 100 100 100 100 100 100 100 100 100 100 100 100 100 100 100 100 100 100 100 100 100 100 100 100 100 100 100 100 100 100 100 100 100 100
100 100 100 100 100 100 100 100 100 100 100 100 100 100 100 100 100 100 100 100 100 100 100 100 100 100 100 100 100 100 100 100 100 100 100 100 100 100 100 100 100 100 100
100 100 100 100 99 100 100 100 100 100 100 100 100 100 100 100 100 100 100 100 100 100 100 100 100 100 100 100 100 100 100 100 100 100 100 100 100 100 100 100 100 100 100

GFSMW_prec_cloud_102.txt.gz
Cloud_Cover
5 0 0 5 79 88 100 100 100 100 100 100 100 100 95 100 100 100 42 65 19 28 36 70 100 100 100 100 100 100 100 100 100 100 100 100 100 100 100 100 100 100 100
0 0 0 2 16 41 65 100 100 100 100 100 100 47 11 100 100 100 100 100 100 86 98 88 100 100 100 100 100 100 100 100 100 100 100 100 100 100 100 100 100 100 100
0 0 10 72 65 2 84 80 78 100 100 100 100 100 100 100 99 100 100 100 100 100 100 100 100 100 100 100 100 100 100 100 100 100 100 100 100 100 100 100 100 100 100
0 87 100 48 0 5 32 100 100 100 100 100 100 100 100 100 98 100 100 24 100 100 100 100 100 100 100 100 100 100 98 100 100 100 100 100 100 100 100 100 100 100 100
6 0 26 4 0 36 100 100 100 100 100 100 100 88 55 99 100 100 99 91 65 100 100 100 100 100 100 100 100 100 100 100 100 100 100 100 100 100 100 100 100 100 100
100 42 85 1 26 100 100 100 100 100 100 100 100 100 100 100 100 100 100 100 98 100 100 100 100 100 100 100 100 100 100 100 100 100 100 100 100 100 100 100 100 100 100
100 100 100 100 100 100 100 100 100 100 100 100 100 100 100 100 100 99 100 89 92 100 100 100 100 100 100 100 100 100 100 100 100 100 100 100 100 100 100 100 100 100 100
100 100 100 100 100 100 100 100 100 100 100 98 100 98 96 100 100 100 82 30 93 49 34 92 99 100 100 100 100 100 100 100 100 100 98 100 100 100 100 100 100 100 100
100 100 100 100 100 100 100 100 100 100 100 100 71 47 100 100 100 100 100 95 100 42 34 82 88 100 100 100 100 100 100 100 100 100 100 100 100 100 100 100 100 100 100
100 100 100 100 100 100 100 100 100 100 100 100 100 100 98 100 100 100 98 100 100 100 99 100 100 100 100 88 100 100 100 100 100 100 100 100 100 100 100 100 100 100 100
100 100 100 100 100 100 100 100 100 100 100 100 100 100 100 100 100 100 100 100 100 100 100 100 100 100 100 100 100 100 100 100 100 100 100 100 100 100 100 100 100 100 100
100 100 100 100 100 100 100 100 100 100 100 100 43 91 100 100 100 100 100 100 100 100 100 98 100 100 100 100 100 100 100 100 100 100 100 100 100 100 100 100 100 100 100
100 100 100 100 100 100 100 100 100 100 100 100 94 92 100 100 100 100 100 100 100 100 97 100 100 100 98 85 100 100 100 100 100 100 100 100 100 100 100 100 100 100 100
100 100 100 100 100 100 100 100 100 100 100 100 100 100 100 100 100 100 100 100 96 97 100 96 100 100 100 100 100 100 100 100 100 100 100 100 100 100 100 100 100 100 100
100 100 100 100 100 100 100 100 100 100 100 100 100 100 100 100 100 100 100 100 99 100 90 98 100 100 100 100 100 100 100 100 100 100 100 100 100 100 100 100 100 100 100
100 100 100 100 100 100 100 100 100 100 100 100 100 100 100 100 100 100 100 100 100 100 100 100 100 100 100 100 100 100 100 100 100 100 100 100 100 100 100 100 100 100 100
100 100 100 100 100 100 100 100 100 100 100 100 100 100 100 100 100 100 100 100 100 100 100 100 100 100 100 100 100 100 100 100 100 100 100 100 100 100 100 100 100 100 100
100 100 100 100 100 100 100 100 100 100 100 100 100 100 100 100 100 100 100 100 100 100 100 100 100 100 100 100 100 100 100 100 100 100 100 100 100 100 100 100 100 100 100
100 100 100 100 100 100 100 100 100 100 100 100 100 100 100 100 100 100 100 100 100 100 100 100 100 100 100 100 100 100 100 100 100 100 100 100 100 100 100 100 100 100 100
100 100 100 100 100 100 100 100 100 100 100 100 100 100 100 100 100 100 100 100 100 100 100 100 100 100 100 100 100 100 100 100 100 100 100 100 100 100 100 100 100 100 100
100 100 98 98 100 100 100 100 99 100 100 100 100 100 100 100 100 100 100 100 100 100 100 100 100 100 100 100 100 100 100 100 100 100 100 100 100 100 100 100 100 100 100
100 96 100 98 100 100 89 90 100 100 100 100 100 100 100 100 100 100 100 100 100 100 100 100 100 100 100 100 100 100 100 100 100 100 100 100 100 100 100 100 100 100 100
100 100 100 100 100 94 100 83 100 94 80 75 100 100 100 100 100 100 100 100 100 100 100 100 100 100 100 100 100 100 100 100 100 100 100 100 100 100 100 100 100 100 100
100 100 100 100 100 100 93 100 96 97 95 84 100 100 100 100 100 100 100 100 100 100 100 100 100 100 100 100 100 100 100 100 100 100 100 100 100 100 100 100 100 100 100
100 100 100 100 100 97 100 100 100 100 80 100 100 100 100 100 100 100 100 100 100 100 100 100 100 100 100 100 100 100 100 100 100 100 100 100 100 100 100 100 100 100 100
100 94 80 96 99 98 100 100 100 100 100 100 100 100 100 100 100 100 100 100 100 100 100 100 100 100 100 100 100 100 100 100 100 100 100 100 100 100 100 100 100 100 100

GFSMW_prec_cloud_105.txt.gz
Cloud_Cover
0 0 2 0 0 0 4 0 60 98 44 100 100 100 100 100 100 100 100 100 100 100 100 98 100 100 100 100 100 100 100 100 100 100 100 100 100 100 100 100 100 100 100
0 0 0 4 0 0 4 0 19 100 73 100 100 100 100 100 77 72 98 100 100 100 100 100 100 100 100 100 100 100 100 100 100 100 100 100 100 100 100 100 100 100 100
0 0 0 0 1 0 0 0 5 83 97 100 100 100 86 62 100 100 100 99 78 98 100 100 100 100 100 100 100 100 93 100 100 100 100 100 100 100 100 100 100 100 100
1 22 0 0 0 0 0 0 5 90 99 100 100 100 100 88 100 92 71 100 100 100 100 100 100 100 100 100 100 100 84 87 100 100 100 100 100 100 100 100 100 100 100
100 100 100 69 6 29 41 1 5 99 84 100 100 100 100 100 100 100 100 100 100 100 100 100 100 100 100 100 100 100 100 100 100 100 100 100 100 100 100 100 100 100 100
98 100 100 100 100 93 21 53 5 87 96 100 100 100 100 74 100 100 100 100 100 100 100 100 100 100 100 100 100 100 100 100 100 100 100 100 100 100 100 100 100 100 100
95 100 100 100 100 100 100 100 97 100 100 100 100 100 100 96 87 100 99 100 100 100 100 100 100 100 100 100 100 100 100 100 100 100 100 100 100 100 100 100 100 100 100
100 100 100 100 100 100 100 100 100 100 100 100 100 100 100 100 50 95 100 100 99 100 100 100 100 100 100 100 100 100 100 100 100 100 100 100 100 100 100 100 100 100 100
100 100 100 100 100 100 100 100 100 100 100 100 100 100 100 76 100 100 100 100 100 100 100 100 100 100 100 100 100 100 100 100 100 100 100 100 92 100 100 100 100 100 100
100 100 100 100 100 100 100 100 100 100 100 100 100 100 100 100 100 100 100 100 100 100 100 98 99 90 100 100 100 100 100 100 100 100 100 100 100 100 100 100 100 100 100
100 100 100 100 100 100 100 100 100 100 100 100 100 100 100 100 100 100 100 100 100 100 100 100 99 95 100 100 100 100 100 100 100 100 100 100 100 100 100 100 100 100 100
100 100 100 100 100 100 100 100 100 100 100 100 100 100 100 100 100 100 100 100 100 100 100 100 100 100 100 100 100 100 100 100 100 100 100 100 100 100 100 100 100 100 100
100 100 100 100 100 100 100 100 100 100 100 100 100 100 100 100 100 100 100 100 100 100 100 59 100 100 100 100 100 100 100 100 100 100 100 100 100 100 100 100 100 100 100
100 100 100 100 100 100 100 100 100 100 100 100 100 100 100 100 100 100 100 100 100 100 38 82 100 100 100 100 100 100 100 100 100 100 100 100 100 100 100 100 100 100 100
100 100 100 100 100 100 100 100 100 100 100 100 100 100 100 100 100 100 100 100 100 93 94 100 100 100 100 100 100 100 100 100 100 100 100 100 100 100 100 100 100 100 100
100 100 100 100 100 100 100 100 100 100 100 100 100 100 100 100 100 100 100 100 100 100 100 100 100 100 100 100 100 100 100 100 100 100 100 100 100 100 100 100 100 100 100
100 100 100 100 100 100 100 100 100 100 100 100 100 100 100 100 100 100 100 100 100 100 100 100 100 100 100 100 100 100 100 100 100 100 100 100 100 100 100 100 100 100 100
100 100 100 100 100 100 100 100 100 100 100 100 100 100 100 100 100 100 100 100 100 100 100 100 100 100 100 100 100 100 100 100 100 100 100 100 100 100 100 100 100 100 100
100 100 100 100 100 100 100 100 100 100 100 100 100 100 100 100 100 100 100 100 100 100 100 100 100 100 100 100 100 100 100 100 100 100 100 100 100 100 100 100 100 100 100
100 100 100 100 100 100 100 100 100 100 100 100 100 100 100 100 100 100 100 100 100 100 100 100 100 100 100 95 100 100 100 100 100 100 100 100 100 100 100 100 100 100 100
100 100 100 100 100 100 100 100 100 100 100 100 100 100 100 100 100 100 100 100 100 100 100 100 100 100 100 100 100 100 100 100 100 100 100 100 100 100 100 100 100 100 100
100 96 100 100 100 100 100 100 100 100 100 100 100 100 100 100 100 100 100 100 100 100 100 100 100 100 100 100 100 100 100 100 100 100 100 100 100 100 100 100 100 100 100
100 99 100 100 100 100 100 100 100 100 100 100 100 99 100 100 100 100 100 100 100 100 100 100 100 100 100 100 100 100 100 100 100 100 100 100 100 100 100 100 100 100 100
69 76 96 100 100 100 95 100 82 95 100 100 92 98 100 98 97 100 100 100 100 100 100 100 100 100 100 100 100 100 100 100 100 100 100 100 100 100 100 100 100 100 100
12 25 89 100 99 92 89 88 93 97 99 100 99 87 90 78 92 100 100 100 100 100 100 100 100 100 100 100 100 100 100 100 100 100 100 100 100 100 100 100 100 100 100
64 28 60 70 93 63 74 74 99 90 87 99 100 96 98 91 100 99 96 100 100 100 100 100 100 100 100 100 100 100 100 100 100 100 100 100 100 100 100 100 100 100 100

GFSMW_prec_cloud_111.txt.gz
Cloud_Cover
5 54 100 100 84 100 100 100 100 99 53 5 33 95 100 100 51 18 100 100 94 100 100 100 100 100 100 100 100 100 97 100 100 100 100 77 75 100 99 100 100 100 100
44 13 96 100 100 100 100 100 100 100 15 0 0 0 0 98 64 44 56 100 100 100 100 100 100 100 100 100 100 100 100 100 83 100 100 100 100 95 73 100 100 100 100
80 59 100 100 100 100 100 100 87 100 19 3 0 0 21 58 94 100 100 100 100 100 100 100 100 100 100 100 100 100 100 100 100 100 100 97 66 72 100 100 100 100 100
100 100 100 100 100 100 100 100 100 100 100 95 4 0 0 34 86 97 100 100 100 100 100 100 100 100 100 100 100 100 100 100 100 100 100 99 26 70 100 100 100 100 100
98 100 100 100 100 74 66 100 91 31 100 65 3 0 0 0 0 39 82 100 100 100 100 100 100 100 100 100 100 100 100 100 78 84 100 100 62 42 100 100 93 100 100
39 100 100 100 100 100 100 100 100 100 56 52 0 0 0 0 0 42 59 100 100 100 100 100 100 100 100 100 100 100 100 100 92 100 100 100 100 100 100 100 100 99 100
58 68 94 98 98 100 100 100 100 100 100 99 1 0 4 26 17 52 35 100 100 100 100 100 100 100 100 100 100 100 100 100 100 100 100 90 100 100 100 100 100 81 99
60 54 96 100 100 100 100 100 100 100 100 100 82 10 0 100 82 70 68 76 100 100 100 100 100 100 100 100 100 100 100 100 100 100 98 100 100 98 100 100 100 100 100
78 90 100 100 100 100 100 100 100 100 100 100 100 80 51 100 100 100 89 34 100 79 96 100 100 100 100 100 100 100 100 100 100 100 100 100 100 100 100 100 100 100 100
100 100 100 100 100 100 100 100 100 100 100 100 100 100 37 100 100 100 71 100 100 100 100 100 100 100 100 100 100 100 100 100 100 100 100 100 100 100 100 100 100 100 88
100 100 100 100 100 100 100 100 100 100 100 100 100 100 100 100 100 100 99 100 100 100 100 100 100 98 100 100 100 100 100 100 100 100 100 100 100 100 100 100 100 100 100
100 100 100 100 100 100 100 100 100 100 100 100 100 100 100 100 100 100 100 100 100 100 100 100 98 100 100 100 100 100 100 100 100 100 90 97 100 100 100 100 100 100 100
100 100 100 100 100 100 100 100 100 100 100 100 100 100 100 100 100 100 100 100 100 100 100 100 100 100 100 100 100 100 100 100 100 100 100 100 99 91 80 100 100 100 100
100 100 100 100 100 100 100 100 100 100 100 100 100 100 100 100 100 100 100 100 100 100 100 100 100 100 100 100 100 100 100 100 100 100 85 71 84 100 100 100 100 100 100
100 100 100 100 100 100 100 100 100 100 100 100 100 100 100 100 100 100 100 100 100 100 100 100 100 100 100 100 100 100 100 100 57 35 79 90 79 18 27 88 100 100 100
100 100 100 100 100 100 100 100 100 100 100 100 100 100 100 100 100 100 100 100 100 100 100 100 100 100 100 100 100 100 100 100 100 100 100 92 75 100 100 100 100 100 100
100 100 100 100 100 100 100 100 100 100 100 100 100 100 100 100 100 100 100 100 100 100 100 100 100 100 100 100 100 100 100 100 100 100 100 99 89 66 97 100 100 100 100
100 100 100 100 100 100 100 100 100 100 100 100 100 100 100 100 100 100 100 100 100 100 100 100 100 100 100 100 100 100 100 100 100 100 100 100 100 100 71 100 100 100 100
100 100 100 100 100 100 100 100 100 100 100 100 100 100 100 100 100 100 100 100 100 100 100 100 100 100 100 100 100 100 100 100 100 100 100 100 100 100 96 100 100 100 100
100 100 100 99 100 100 100 100 100 100 100 100 100 100 100 100 100 100 100 100 100 100 100 100 100 100 100 100 100 100 100 100 100 100 100 100 100 100 100 100 100 100 100
100 100 100 100 100 100 100 100 100 100 100 100 100 100 100 100 100 100 100 100 100 100 100 100 100 100 100 100 100 100 100 100 100 100 100 100 100 100 100 100 100 100 100
100 100 100 100 100 100 100 100 100 100 100 100 100 100 100 100 100 100 100 100 100 100 100 100 100 100 100 100 100 100 100 100 100 100 100 100 100 100 100 100 100 100 100
100 100 100 46 99 98 100 100 100 100 100 100 100 100 100 100 100 100 100 100 100 100 100 100 100 100 100 100 100 100 100 100 100 100 100 100 100 100 100 100 100 100 100
100 94 61 100 52 100 100 100 100 100 100 100 100 100 100 100 100 100 100 100 100 100 100 100 100 100 100 100 100 100 100 100 100 100 100 100 100 100 100 100 100 100 100
94 100 100 100 91 69 82 100 100 100 100 100 100 100 100 100 100 100 100 100 100 100 100 100 100 100 100 100 100 100 100 100 100 100 84 100 100 100 100 100 100 100 100
7 45 72 61 97 98 94 76 47 29 65 82 100 100 100 100 100 89 53 100 100 100 100 100 100 100 100 100 100 100 100 94 79 88 100 100 100 100 100 100 100 100 100

GFSMW_prec_cloud_114.txt.gz
Cloud_Cover
11 84 64 90 79 68 100 100 63 6 16 98 95 100 100 100 84 6 4 0 0 9 100 100 100 97 100 100 100 100 100 100 100 100 100 90 59 50 33 55 74 79 17
5 10 98 97 100 100 89 86 87 100 11 3 100 100 100 100 100 70 5 22 38 2 5 100 100 100 100 100 100 100 100 100 100 94 100 96 75 52 68 83 100 85 83
5 5 77 93 97 100 100 100 93 100 100 59 4 63 100 100 100 91 62 96 18 0 0 71 100 100 100 100 100 100 100 100 100 100 98 69 49 23 99 69 94 86 100
8 95 98 98 99 100 100 100 100 100 91 100 100 95 96 100 100 100 100 22 15 44 52 64 100 100 100 100 100 100 100 100 100 95 99 38 81 31 70 41 76 99 100
100 94 50 98 100 100 100 100 100 100 100 93 16 31 63 98 100 100 100 100 75 84 100 99 100 100 100 100 100 100 100 100 100 100 100 82 100 100 17 100 98 47 56
98 98 73 44 50 51 41 53 84 94 91 90 80 66 39 8 33 100 100 100 54 79 100 100 100 100 100 100 100 100 100 100 100 100 93 59 93 87 71 79 9 72 59
71 79 90 59 81 76 69 57 65 75 69 100 100 98 47 100 8 16 100 100 73 100 100 100 100 100 100 100 100 100 100 100 100 100 94 84 48 40 55 27 56 59 14
100 100 100 100 90 93 100 100 99 98 79 100 100 100 86 12 4 2 10 100 35 100 100 100 100 100 100 100 100 100 100 100 100 100 100 96 35 25 49 33 39 99 58
98 100 100 100 100 95 100 100 100 100 100 100 100 100 82 42 0 8 15 8 48 98 100 100 100 100 100 100 100 100 100 100 100 100 100 98 59 28 64 61 98 38 90
93 100 100 100 100 100 100 100 100 100 100 100 100 100 100 31 100 96 33 55 81 100 100 100 100 100 100 100 100 100 100 100 100 100 100 100 100 89 99 96 98 100 100
100 100 100 100 100 100 100 100 100 100 100 100 100 100 100 46 97 51 100 100 100 34 100 100 100 100 100 100 100 100 100 100 100 100 100 100 100 100 100 100 100 100 100
100 100 100 100 100 100 100 100 100 100 100 100 100 100 100 100 66 99 100 100 45 100 100 100 100 100 100 100 100 100 100 100 100 100 100 100 100 100 100 86 100 100 99
100 100 100 100 100 100 100 100 100 100 100 100 100 100 100 100 100 100 100 100 100 100 100 100 100 100 100 100 100 100 100 100 100 100 100 100 100 60 65 7 54 100 100
100 100 100 100 100 100 100 100 100 100 100 100 100 100 100 100 100 100 100 100 100 100 100 100 100 100 100 100 100 100 100 100 100 100 100 100 72 97 98 90 63 78 100
100 100 100 100 100 100 100 100 100 100 100 100 100 100 100 100 100 100 100 100 100 100 100 100 100 100 100 100 100 100 100 100 100 100 100 100 100 100 90 97 87 100 100
100 100 100 100 100 100 100 100 100 100 100 100 100 100 100 100 100 100 100 100 100 100 100 100 100 100 100 100 100 100 100 100 100 100 100 100 100 100 69 54 98 100 100
100 100 100 100 100 100 100 100 100 100 100 100 100 100 100 100 100 100 100 100 100 100 100 100 100 100 100 100 100 100 100 100 100 100 100 100 100 100 98 98 99 100 100
100 100 100 100 100 100 100 100 99 100 100 100 100 100 100 100 100 100 100 100 100 100 100 100 100 100 100 100 100 100 100 100 100 100 100 100 100 100 99 100 100 100 100
100 100 100 100 100 100 100 100 100 100 100 100 100 100 100 100 100 100 100 100 100 100 100 100 100 100 100 100 100 100 100 100 100 100 100 100 100 100 100 100 100 100 100
100 100 100 100 99 100 100 100 100 100 100 100 100 100 100 100 100 100 100 100 100 100 100 100 100 100 100 100 100 100 100 100 100 100 100 100 100 100 100 100 100 100 100
100 100 100 100 100 100 100 100 100 100 100 100 100 100 100 100 100 100 100 100 100 100 100 100 100 100 100 100 100 100 100 100 100 100 100 100 100 100 100 100 100 100 100
99 96 100 68 100 96 100 100 100 100 100 100 100 100 100 100 100 100 100 100 100 100 99 100 100 100 100 100 100 100 100 100 100 100 100 100 100 100 100 100 100 100 100
100 91 97 89 100 100 100 100 100 100 100 100 100 100 100 100 100 100 100 100 100 100 100 100 100 100 100 100 100 100 100 99 100 100 100 100 100 100 100 100 100 100 100
100 100 100 98 98 97 100 100 100 100 100 100 100 100 100 100 100 100 100 100 100 100 100 100 100 100 100 100 100 100 100 100 100 100 100 100 100 100 100 100 100 100 100
100 98 100 100 100 74 73 79 100 100 100 99 100 100 100 100 100 100 100 100 100 100 100 100 100 100 100 100 100 100 100 100 100 100 100 100 100 100 100 100 100 100 100
5 20 43 92 90 100 99 100 96 55 100 100 100 100 100 100 100 100 100 100 100 100 100 100 100 100 100 100 100 100 100 100 100 100 100 100 100 100 100 100 100 100 100

GFSMW_prec_cloud_117.txt.gz
Cloud_Cover
100 100 100 96 77 18 5 5 5 0 4 5 36 100 100 100 100 100 100 100 100 100 100 72 4 5 76 48 70 92 89 100 100 100 100 100 100 100 99 81 98 33 100
98 71 53 18 5 5 2 5 94 48 35 23 61 81 69 38 12 24 89 100 100 100 100 89 46 13 30 99 100 92 100 100 100 100 100 100 100 87 69 31 50 72 76
8 5 5 5 4 5 3 4 0 29 91 46 6 16 81 67 5 33 30 100 100 100 100 100 22 0 17 90 100 100 100 100 100 100 100 100 100 61 41 13 72 99 35
5 5 5 5 5 5 8 35 47 18 86 100 100 85 4 4 5 6 100 36 100 100 100 100 54 4 27 28 99 100 100 100 100 100 100 100 100 100 78 30 35 61 87
98 100 100 89 83 65 74 74 92 88 100 100 100 81 94 95 100 85 84 100 18 100 100 100 93 57 61 31 79 100 100 100 100 100 100 100 100 100 59 100 100 15 31
100 100 100 69 100 100 100 100 100 99 81 94 97 100 84 52 19 9 100 100 95 68 100 100 100 43 76 83 57 100 88 100 100 100 100 100 100 100 67 88 99 99 98
74 90 94 99 100 100 100 100 100 100 98 89 100 100 100 90 97 100 45 100 100 100 100 100 100 100 97 100 96 92 93 100 100 100 100 100 100 100 87 100 55 100 82
98 99 78 100 100 100 100 100 100 100 100 100 100 96 100 100 77 31 72 100 100 100 100 100 100 100 98 100 100 100 100 100 100 100 100 100 100 100 100 100 99 52 63
100 100 100 100 100 100 100 100 100 100 100 100 100 100 100 100 100 30 2 22 77 100 99 71 99 100 100 100 100 97 100 100 100 100 100 100 100 73 37 100 100 98 98
100 100 100 100 93 81 100 100 100 100 100 100 100 100 100 100 100 98 0 0 0 57 31 98 55 100 100 100 100 100 100 100 100 100 100 100 100 100 100 100 100 24 38
100 100 91 91 100 100 93 100 100 100 100 100 100 100 100 100 100 100 0 0 0 0 34 67 50 100 100 100 100 100 100 100 100 100 100 100 100 100 100 100 100 64 45
100 100 100 100 100 100 100 100 100 100 100 100 100 100 100 100 100 96 91 65 11 9 99 96 57 64 100 100 100 100 100 100 100 100 100 100 100 100 100 100 100 100 100
100 100 100 100 100 100 100 100 100 100 100 100 100 100 100 100 100 100 100 100 85 100 93 100 98 99 100 100 100 100 100 100 100 100 100 100 100 100 100 100 100 54 77
100 100 100 100 100 100 100 100 100 100 100 100 100 100 100 100 100 100 100 100 100 100 100 100 100 100 100 100 100 100 100 100 100 100 100 100 100 100 100 100 91 56 80
100 100 100 100 100 100 100 100 100 100 100 100 100 100 100 100 100 100 100 100 100 100 100 100 100 100 100 100 100 100 100 100 100 100 100 100 100 100 100 100 77 68 97
100 100 100 100 100 100 100 100 100 100 100 100 100 100 100 100 100 100 100 100 100 100 100 100 100 100 100 100 100 100 100 100 100 100 100 100 100 100 100 100 90 100 100
100 100 100 100 100 100 100 100 100 100 100 100 100 100 100 100 100 100 100 100 100 100 100 100 100 100 100 100 100 100 100 100 100 100 100 100 100 100 100 62 100 100 100
100 100 100 100 100 100 100 100 94 100 100 100 100 100 100 100 100 100 100 100 100 100 100 100 100 100 100 100 100 100 100 100 100 100 100 100 100 100 96 100 100 100 100
100 100 100 100 100 90 100 100 100 100 100 100 100 100 100 100 100 100 100 100 100 100 100 100 100 100 100 100 100 100 100 100 100 100 100 100 100 100 100 100 100 100 100
100 100 100 81 98 84 90 100 100 100 100 100 100 100 100 100 100 100 100 100 100 100 100 100 100 100 100 100 100 100 100 100 100 100 100 100 100 100 100 100 100 100 100
100 100 100 100 96 74 100 100 100 100 100 100 100 100 100 100 100 100 100 100 100 100 100 100 100 100 100 100 100 100 100 100 100 100 100 100 100 100 100 100 100 100 100
100 100 100 100 98 99 100 100 100 100 100 100 100 100 100 100 100 100 100 100 100 100 100 100 100 100 100 100 100 100 100 100 100 100 100 100 100 100 100 100 100 100 100
100 100 100 100 100 78 99 100 100 100 100 100 100 100 100 100 100 100 100 100 100 100 100 100 100 100 100 100 100 100 100 100 100 100 100 100 100 100 100 100 100 100 100
100 100 100 100 70 100 83 100 100 100 100 100 100 100 100 100 100 100 100 100 100 100 100 100 100 100 100 100 100 100 100 100 100 100 100 100 100 100 100 100 100 100 100
100 100 100 100 100 86 33 100 43 100 100 100 99 100 100 100 100 100 100 100 100 100 100 100 100 100 100 100 100 100 100 100 100 100 100 100 100 99 100 100 100 100 100
5 9 98 100 100 100 100 91 90 91 85 97 100 100 100 100 100 100 100 100 100 100 100 100 100 100 100 100 100 100 100 100 100 100 100 100 100 100 100 100 100 100 100

GFSMW_prec_cloud_123.txt.gz
Cloud_Cover
0 0 0 0 0 0 0 0 0 0 25 100 100 100 100 100 100 30 30 10 8 76 100 100 96 100 100 47 4 0 0 6 87 35 100 12 8 24 53 61 49 100 100
0 0 0 0 0 0 0 0 0 0 0 1 87 100 100 100 100 100 73 50 3 14 48 92 100 100 100 100 9 5 4 5 3 51 66 98 36 63 42 87 53 82 100
0 0 0 0 0 0 0 0 0 0 5 5 12 19 100 100 100 100 100 92 94 14 5 82 100 100 100 100 30 11 24 5 43 69 5 94 26 19 25 92 98 87 100
0 55 84 6 0 0 4 5 1 0 0 5 82 35 4 45 100 100 100 90 87 54 6 9 100 100 100 100 98 8 15 63 100 100 99 99 15 0 20 44 97 100 38
20 98 61 35 100 100 100 100 87 7 5 5 5 30 18 2 31 12 58 85 11 96 43 84 12 98 100 100 100 76 100 100 100 100 100 77 100 22 5 100 100 98 12
27 40 32 5 5 47 94 65 60 74 61 5 5 5 6 7 20 61 18 5 3 16 84 99 92 10 70 100 100 100 100 100 100 100 100 100 100 100 5 68 100 100 9
5 6 34 5 5 5 6 42 61 56 54 15 5 5 33 86 74 74 95 75 10 6 45 100 99 14 5 5 66 100 100 100 100 100 100 100 100 100 13 5 100 100 43
6 23 15 6 25 36 49 78 97 100 95 41 55 49 74 100 100 100 100 96 76 67 34 58 100 100 5 7 2 89 100 100 100 100 100 100 100 100 98 5 73 100 100
7 39 44 48 64 51 97 100 100 98 97 100 100 100 100 100 100 100 100 100 90 75 46 88 100 100 45 0 2 74 82 100 100 100 100 100 100 100 100 51 8 100 51
46 45 51 60 36 52 98 100 68 99 98 98 100 100 100 100 100 100 100 100 100 100 100 98 100 100 100 5 0 47 100 100 100 100 100 100 100 100 100 100 41 100 13
38 66 47 36 60 81 99 100 96 100 88 100 100 100 100 100 100 100 100 100 100 100 63 100 97 25 98 95 2 4 100 100 100 100 100 100 100 100 100 100 26 100 56
76 70 71 80 100 100 100 100 100 100 100 100 100 100 100 100 100 100 100 100 100 100 100 100 100 76 61 23 3 3 100 100 100 100 100 100 100 100 100 100 34 100 74
78 74 97 100 100 100 100 100 100 100 100 100 100 100 100 100 100 100 100 100 100 100 100 100 100 100 100 100 100 97 100 100 100 100 100 91 100 100 100 100 87 100 100
100 100 100 100 100 100 100 100 100 100 100 100 100 100 100 100 100 100 100 100 100 100 100 100 100 100 100 100 100 100 100 99 99 92 100 100 100 100 100 100 89 100 100
100 100 100 100 100 100 100 100 100 100 100 100 100 100 100 100 100 100 100 100 100 100 100 100 100 100 100 100 100 100 100 100 100 100 100 100 100 100 100 100 100 100 100
100 100 100 100 100 100 100 100 100 100 100 100 100 100 100 100 100 100 100 100 100 100 100 100 100 100 100 100 100 100 100 100 100 100 100 100 100 100 100 100 100 100 100
100 100 100 100 100 100 100 100 100 100 100 100 100 100 100 100 100 100 100 100 100 100 100 100 100 100 100 100 100 100 100 100 100 100 100 100 100 100 100 100 100 100 100
100 100 100 100 100 100 100 100 100 100 100 100 100 100 100 100 100 100 100 100 100 100 100 100 100 100 100 100 100 100 100 100 100 100 100 100 100 100 100 100 100 100 100
100 100 100 100 100 100 100 100 100 100 100 100 100 100 100 100 100 100 100 100 100 100 100 100 100 100 100 100 100 100 100 100 100 100 100 100 100 100 100 100 100 100 100
100 100 100 100 100 100 100 100 100 100 100 100 100 100 100 100 100 100 100 100 100 100 100 100 100 100 100 100 100 100 100 100 100 100 100 100 100 100 100 100 100 100 100
100 100 100 100 100 100 100 100 100 100 99 99 100 100 100 100 100 100 100 100 100 100 100 100 100 100 100 100 100 100 100 100 100 100 100 100 100 100 100 100 100 100 100
100 100 100 100 100 100 100 100 100 97 94 100 90 100 100 100 100 100 100 100 100 100 100 100 100 100 100 100 100 100 100 100 100 100 100 100 100 100 100 100 100 100 100
100 100 100 100 100 100 100 100 100 100 46 59 100 100 100 100 100 100 100 100 100 100 100 100 100 100 100 100 100 100 100 100 100 100 100 100 100 100 100 100 100 100 100
100 100 100 100 100 100 100 100 100 100 100 74 84 98 100 100 100 100 100 100 100 100 100 100 100 100 100 100 100 100 100 100 100 100 100 100 100 100 100 100 100 100 100
100 100 100 100 100 100 100 100 100 100 100 95 59 93 98 100 91 100 100 98 100 100 100 100 100 100 100 100 100 100 100 100 100 100 100 100 100 100 100 100 100 100 100
100 100 100 100 100 100 100 100 100 100 100 100 100 29 57 100 98 18 100 100 97 100 100 100 100 100 100 100 100 100 100 100 100 100 100 100 100 100 100 100 100 100 100

GFSMW_prec_cloud_129.txt.gz
Cloud_Cover
5 10 7 5 5 1 7 88 91 93 7 2 3 0 0 0 0 0 0 0 1 26 87 100 100 100 100 100 100 100 100 100 100 100 100 100 44 89 100 100 100 100 31
5 5 5 5 3 2 4 5 5 5 5 5 5 5 5 0 0 0 0 4 0 1 81 64 81 100 100 100 100 100 100 100 100 100 100 100 100 100 77 97 100 100 62
0 4 4 1 2 5 5 5 5 5 5 5 5 5 5 5 3 0 0 0 0 0 8 84 38 98 100 100 100 100 100 100 100 100 100 100 100 100 96 100 100 100 100
5 5 5 5 5 5 14 14 17 5 5 5 5 5 5 5 5 5 5 5 3 0 0 31 48 98 100 100 100 100 100 100 100 100 100 100 100 100 100 100 100 100 100
5 5 5 5 5 7 74 98 100 26 42 77 98 100 100 94 83 66 14 6 5 0 0 3 75 14 51 100 100 100 100 100 100 100 100 100 100 100 100 100 100 100 100
5 5 5 9 44 96 100 92 93 55 100 100 100 100 100 100 100 100 100 99 83 36 28 8 12 36 63 40 100 100 100 100 100 100 100 100 100 100 100 100 100 100 100
5 9 66 100 100 100 85 57 64 100 100 100 100 100 100 100 100 100 100 100 100 100 100 100 98 12 5 5 69 84 100 100 100 100 100 100 100 100 100 100 100 100 100
5 24 72 100 100 100 26 77 86 100 64 100 100 100 100 100 100 100 100 100 100 100 100 100 100 100 77 74 100 82 26 100 100 100 96 52 77 100 100 100 100 100 100
5 35 90 55 92 94 64 91 99 69 65 93 82 99 100 100 100 100 100 100 100 100 100 100 100 100 100 100 99 37 12 19 78 98 92 39 76 100 100 100 100 100 100
5 16 69 24 79 64 39 44 45 97 98 94 86 98 100 100 100 100 100 100 100 100 100 100 100 100 100 100 100 100 95 6 5 52 80 56 84 100 100 100 100 100 100
9 22 14 6 12 26 34 85 100 100 100 100 100 100 100 100 100 100 100 100 100 100 100 100 100 100 100 100 100 100 100 96 92 86 100 64 6 64 100 100 100 100 100
6 11 5 5 6 43 95 100 100 96 82 100 100 100 100 100 100 100 100 100 100 100 100 100 100 100 100 100 100 100 100 100 77 47 100 85 71 18 100 100 100 100 100
5 5 5 9 40 99 100 100 100 100 100 100 100 100 100 100 100 100 100 100 100 100 100 100 100 100 100 100 100 100 100 100 100 94 100 100 96 83 90 100 100 100 100
14 59 85 77 100 100 100 100 100 100 100 100 100 100 100 100 100 100 100 100 100 100 100 100 100 100 100 100 100 100 100 100 100 100 100 100 100 100 100 100 100 100 100
100 100 100 100 100 100 100 100 100 100 100 100 100 100 100 100 100 100 100 100 100 100 100 100 100 100 100 100 100 100 100 100 100 100 100 100 100 100 97 93 100 100 100
100 100 100 100 100 100 100 100 100 100 100 100 100 100 100 100 100 100 100 100 100 100 100 100 100 100 100 100 100 100 100 100 100 100 100 100 100 100 100 100 100 100 100
100 100 100 100 100 100 100 100 100 100 100 100 100 100 100 100 100 100 100 100 100 100 100 100 100 100 100 100 100 100 100 100 100 100 100 100 100 100 100 100 100 100 100
100 100 100 100 100 100 100 100 100 100 100 100 99 100 100 100 100 100 100 100 100 100 100 100 100 100 100 100 100 100 100 100 100 100 100 100 100 100 100 100 100 100 100
100 100 100 100 100 100 100 100 100 100 100 100 100 100 100 100 100 100 100 100 100 100 100 100 100 100 100 100 100 100 100 100 100 100 100 100 100 100 100 100 100 100 100
100 100 100 100 100 100 100 100 100 100 100 100 100 100 100 100 100 100 100 100 100 100 100 100 100 100 100 100 100 100 100 100 100 100 100 100 100 100 100 100 100 100 100
100 100 100 100 100 100 100 100 100 100 100 100 100 100 100 100 100 100 100 100 100 100 100 100 100 100 100 100 100 100 100 100 100 100 100 100 100 100 100 100 100 100 100
100 100 100 100 100 100 100 100 100 100 100 99 100 100 100 100 100 100 100 100 100 100 100 100 100 100 100 100 100 100 100 100 100 100 100 100 100 100 100 100 100 100 100
100 100 100 100 100 100 100 100 100 100 91 63 97 97 90 100 100 100 95 100 100 100 100 100 100 100 100 100 100 100 100 100 100 100 100 100 100 100 100 100 100 100 100
100 100 100 100 100 100 100 100 100 100 100 100 100 98 88 95 100 48 17 6 97 100 100 100 100 100 100 100 100 100 100 100 100 100 100 100 100 100 100 100 100 100 100
100 100 100 100 100 100 100 100 100 100 100 100 100 100 97 82 47 93 77 7 55 96 87 66 100 100 100 100 94 100 100 100 100 100 100 100 100 100 100 100 100 100 100
100 100 100 100 100 100 100 100 100 100 100 100 43 13 5 5 5 5 5 28 89 100 100 100 70 33 100 100 92 42 98 100 100 100 100 100 100 100 100 100 100 100 100

GFSMW_prec_cloud_132.txt.gz
Cloud_Cover
1 2 1 0 2 5 5 5 5 93 100 100 83 5 0 5 51 65 1 0 0 0 0 0 9 91 99 100 100 100 100 100 100 100 100 100 100 100 100 100 43 100 100
0 0 0 0 5 5 5 5 5 5 5 5 5 14 46 77 21 93 100 100 100 33 0 0 0 4 100 79 100 100 100 100 100 100 100 100 100 100 100 100 31 76 100
5 5 5 5 5 5 5 5 5 5 5 5 5 10 5 7 10 5 6 21 5 3 0 0 0 0 31 100 100 100 100 100 100 100 100 100 100 100 100 100 65 33 22
5 5 5 5 5 5 5 5 30 17 10 24 47 91 100 100 100 100 100 59 5 5 0 0 0 0 0 90 98 100 100 100 100 100 100 100 100 100 100 100 100 97 35
5 5 5 5 5 65 72 5 100 58 100 98 100 100 100 100 100 100 100 100 100 100 83 1 0 0 1 5 17 100 100 100 100 100 100 100 100 100 100 100 100 100 100
5 5 9 24 88 78 22 48 99 68 56 62 96 100 100 100 100 100 100 100 100 100 100 92 93 80 18 1 56 98 56 100 100 100 100 100 100 100 100 100 100 100 100
5 6 80 11 65 21 10 53 53 83 95 100 100 78 98 100 100 100 100 100 100 100 100 99 100 100 100 95 15 35 100 100 100 100 100 95 100 100 100 100 100 100 100
5 9 52 5 46 61 19 98 95 100 100 100 100 74 100 100 100 100 100 100 100 100 100 100 100 100 100 100 100 76 19 100 100 100 100 100 100 100 100 100 100 100 100
5 6 5 5 10 57 31 66 100 100 100 100 100 100 100 100 100 100 100 100 100 100 100 100 100 100 100 100 100 100 100 87 96 100 100 100 100 100 100 100 100 100 100
5 5 5 5 5 13 14 32 76 96 99 100 100 100 100 100 100 100 100 100 100 100 100 100 100 100 100 100 100 100 100 100 98 100 100 100 100 100 100 100 100 100 100
20 16 14 5 5 5 5 34 90 82 90 85 92 100 100 100 100 100 100 100 100 100 100 100 100 100 100 100 100 100 100 100 100 100 100 100 100 100 100 100 100 98 100
57 76 5 5 5 5 70 100 100 100 89 100 100 100 100 100 100 100 100 100 100 100 100 100 100 100 100 100 100 100 100 100 100 100 100 100 100 100 100 100 100 100 97
9 5 10 5 16 95 100 100 100 100 100 100 100 100 100 100 100 100 100 100 100 100 100 100 100 100 100 100 100 100 100 100 100 100 100 100 100 100 100 100 100 100 100
7 78 100 82 100 100 100 100 100 100 100 100 100 100 100 100 100 100 100 100 100 100 100 100 100 100 100 100 100 100 100 100 100 100 100 100 100 100 100 100 100 100 100
90 100 100 100 100 100 100 100 100 100 100 100 100 100 100 100 100 100 100 100 100 100 100 100 100 100 100 100 100 100 100 100 100 100 100 100 100 100 100 100 100 100 100
74 100 100 100 100 100 100 100 100 100 100 100 100 100 100 100 100 100 100 100 100 100 100 100 100 100 100 100 100 100 100 100 100 100 100 100 100 100 100 100 100 100 100
100 100 100 100 100 100 100 100 100 100 100 100 100 100 100 100 100 100 100 100 100 100 100 100 100 100 100 100 100 100 100 100 100 100 100 100 100 100 100 100 100 100 100
100 100 100 100 100 100 100 100 100 100 100 100 100 100 100 100 100 100 100 100 100 100 100 100 100 100 100 100 100 100 100 100 100 100 100 100 100 100 100 100 100 100 100
100 100 100 100 100 100 100 100 100 100 100 100 100 100 100 100 100 100 100 100 100 100 100 100 100 100 100 100 100 100 100 100 100 100 100 100 100 100 100 100 100 100 100
100 100 100 100 100 100 100 100 100 100 100 100 100 100 100 100 100 100 100 100 100 100 100 100 100 100 100 100 100 100 100 100 100 100 100 100 100 100 100 100 100 100 100
100 100 100 100 100 100 100 100 100 100 100 100 100 100 100 100 100 100 100 100 100 100 100 100 100 100 100 100 100 100 100 100 100 100 100 100 100 100 100 100 100 100 100
100 100 100 100 100 100 100 100 100 100 100 100 100 100 100 100 100 100 100 90 89 92 91 100 100 100 100 100 100 100 100 100 100 100 100 100 100 100 100 100 100 100 100
100 100 100 100 100 100 100 100 100 100 100 100 100 100 100 98 74 64 46 90 6 63 100 60 97 100 100 100 100 100 100 100 100 100 100 100 100 100 100 100 100 100 100
100 100 100 100 100 100 100 100 100 100 100 100 100 100 100 100 91 93 25 8 22 11 13 97 73 13 9 60 83 100 100 100 100 100 100 100 100 100 100 100 100 100 100
100 100 100 100 100 100 100 100 100 100 100 100 100 100 100 97 83 13 46 5 46 43 58 11 47 32 59 89 55 24 5 68 60 77 100 100 100 100 100 100 100 100 100
100 100 100 100 100 100 100 100 100 100 100 100 100 44 38 7 8 6 5 30 81 80 82 99 64 20 98 95 25 5 5 5 5 5 18 100 100 100 100 100 100 100 100

GFSMW_prec_cloud_135.txt.gz
Cloud_Cover
6 5 5 5 3 5 5 5 5 5 5 5 3 0 0 0 0 0 0 0 0 0 0 0 0 0 0 11 62 92 100 100 100 100 100 100 99 100 100 100 100 100 88
5 0 0 2 5 5 5 5 5 5 5 5 5 11 5 0 0 0 0 12 5 1 0 0 0 0 0 0 4 98 100 100 100 100 100 100 100 100 100 100 100 100 99
3 1 2 5 5 5 5 5 5 5 5 5 5 5 5 5 5 4 24 25 42 40 41 24 3 0 1 4 0 16 100 100 100 100 100 100 100 100 100 100 100 100 100
2 5 5 5 5 5 5 5 21 7 5 18 16 44 57 32 35 67 64 99 100 94 67 69 63 29 15 5 0 0 5 100 100 100 100 100 99 100 100 100 100 100 100
5 5 5 5 5 5 5 8 56 32 52 94 97 100 100 96 100 100 100 92 100 100 100 100 100 91 82 72 38 32 48 13 87 100 100 100 52 100 100 100 100 100 100
5 5 5 5 5 5 8 12 36 50 72 94 100 100 100 99 100 100 100 100 100 100 100 100 100 100 99 100 98 69 40 8 3 88 100 100 51 100 100 100 100 100 100
5 5 5 5 5 5 5 19 64 77 92 98 100 100 100 100 87 100 100 100 100 100 100 100 100 100 100 100 100 100 100 100 100 100 100 100 100 100 100 100 100 100 100
5 5 5 5 5 5 7 70 72 90 88 100 100 100 100 100 100 100 100 100 100 100 100 100 100 100 100 100 100 100 100 100 93 100 99 100 100 100 100 100 100 100 100
5 5 5 5 5 5 14 64 92 90 96 99 100 100 100 100 100 99 100 100 100 100 100 100 100 100 100 100 100 100 100 100 100 21 99 97 100 100 100 100 100 100 100
5 5 5 5 5 5 5 23 82 85 100 92 99 100 100 98 100 100 100 100 100 100 100 100 100 100 100 100 100 100 100 100 100 100 72 100 100 100 100 100 100 100 100
5 5 5 5 5 5 5 38 96 100 95 86 88 98 100 100 100 100 100 100 100 100 100 100 100 100 100 100 100 100 100 100 100 100 100 84 100 98 100 100 100 100 100
5 5 5 5 5 12 66 99 100 100 100 100 99 100 100 100 100 100 100 100 100 100 100 100 100 100 100 100 100 100 100 100 100 100 100 100 100 100 100 100 99 100 100
31 5 5 21 61 94 100 100 100 100 100 100 100 100 100 100 100 100 100 100 100 100 100 100 100 100 100 100 100 100 100 100 100 100 100 100 100 100 100 100 100 100 100
15 5 5 26 100 100 100 100 100 100 100 100 100 100 100 100 100 100 100 100 100 100 100 100 100 100 100 100 100 100 100 100 100 100 100 100 100 100 100 100 100 100 100
5 7 82 68 100 100 100 100 100 100 100 100 100 100 100 100 100 100 100 100 100 100 100 100 100 100 100 100 100 100 100 100 100 100 100 100 100 100 100 100 100 100 100
21 89 61 100 100 100 100 100 100 100 100 100 100 100 100 100 100 100 100 100 100 100 100 100 100 100 100 100 100 100 100 100 100 100 100 100 100 100 100 100 100 100 100
82 94 90 100 100 100 100 100 100 100 100 100 100 100 100 100 100 100 100 100 100 100 100 100 100 100 100 100 100 100 100 100 100 100 100 100 100 100 100 100 100 100 100
88 97 100 95 100 100 100 100 100 100 100 100 100 100 100 100 100 100 100 100 100 100 100 100 100 100 100 100 100 100 100 100 100 100 100 100 100 99 95 97 100 100 100
100 100 100 100 100 100 100 100 100 100 100 100 100 100 100 100 100 100 100 100 100 100 100 100 100 100 100 100 100 100 100 96 100 100 97 99 100 100 99 68 84 99 100
100 100 100 100 100 100 100 100 100 100 100 100 100 100 100 100 100 100 100 100 100 100 100 100 100 100 100 100 100 100 100 100 100 100 100 100 100 99 99 100 100 100 100
100 100 100 100 100 100 100 100 100 100 100 100 100 100 100 100 100 100 100 100 100 100 100 100 100 100 100 100 100 100 100 100 100 100 100 100 100 99 97 97 100 100 100
100 100 100 100 100 100 100 100 100 100 100 100 100 100 100 100 100 100 100 100 100 100 100 100 97 96 99 100 100 100 100 100 100 100 100 100 100 100 100 100 100 100 100
100 100 100 100 100 100 100 100 100 100 100 100 100 100 100 100 100 100 100 100 100 92 82 70 93 100 94 67 82 50 85 99 100 100 100 100 100 100 100 100 100 100 100
100 100 100 100 100 100 100 100 100 100 100 100 100 100 100 100 100 100 100 99 96 88 72 100 100 100 75 54 91 20 27 30 16 5 55 100 100 100 100 100 100 100 100
86 100 100 100 100 100 100 100 100 100 100 100 100 100 100 100 100 100 93 82 89 95 100 100 100 100 100 94 77 36 5 5 5 5 4 5 5 30 86 100 100 100 100
100 100 100 100 100 100 100 100 100 100 100 100 100 100 100 100 100 72 47 32 84 97 99 99 100 100 100 100 100 70 49 5 5 5 5 6 8 5 5 5 7 95 100

GFSMW_prec_cloud_138.txt.gz
Cloud_Cover
100 100 100 91 65 37 35 49 5 5 5 5 0 0 0 0 0 0 0 0 0 0 0 0 0 0 0 0 0 0 3 53 42 100 100 100 100 100 100 100 100 100 100
5 5 4 4 5 5 3 0 0 0 0 0 0 0 0 0 0 0 0 0 0 12 0 2 0 0 0 0 0 0 0 0 0 90 100 100 100 100 100 100 100 100 100
0 0 0 0 0 0 0 0 2 5 5 5 5 5 3 1 0 0 0 3 25 42 70 74 43 29 19 0 0 0 0 0 0 92 100 100 100 100 100 100 100 100 100
3 0 0 0 0 3 4 5 5 5 5 5 5 19 17 15 9 8 25 55 75 100 99 100 100 100 89 63 21 2 5 0 0 16 70 100 100 100 100 100 100 100 100
0 0 0 0 2 4 5 5 5 5 5 10 28 50 67 80 80 100 100 100 83 100 100 100 100 100 100 100 100 100 98 29 1 0 11 77 100 100 100 100 100 100 100
0 0 0 0 4 5 5 5 5 5 5 6 39 75 94 89 99 100 100 100 100 100 100 100 100 100 100 100 100 100 100 100 76 4 59 100 100 100 100 100 100 100 100
0 0 1 2 5 5 5 5 5 5 8 40 61 91 100 100 100 100 100 100 100 100 100 100 100 100 100 100 100 100 100 100 100 99 96 100 100 100 100 100 100 100 100
0 4 5 5 5 5 5 5 5 5 29 67 74 98 100 100 100 100 100 100 100 100 100 100 100 100 100 100 100 100 100 100 100 100 98 100 100 94 100 100 100 100 100
0 5 5 5 0 0 5 5 5 20 66 98 79 100 100 100 100 100 100 100 100 100 100 100 100 100 100 100 100 100 100 100 100 100 100 99 71 99 36 96 100 100 100
5 5 5 5 0 0 0 5 5 87 83 86 88 92 100 100 100 100 100 100 100 100 100 100 100 100 100 100 100 100 100 100 100 100 100 100 82 56 46 9 97 100 100
5 21 5 4 1 3 5 5 56 97 94 100 100 98 100 100 100 100 100 100 100 100 100 100 100 100 100 100 100 100 100 100 100 100 100 100 100 100 100 74 56 100 98
5 5 5 9 11 11 11 47 100 99 100 100 100 100 100 100 100 100 100 100 100 100 100 100 100 100 100 100 100 100 100 100 100 100 100 100 100 100 99 90 95 100 100
5 5 62 27 5 5 63 86 100 100 100 100 100 100 100 100 100 100 100 100 100 100 100 100 100 100 100 100 100 100 100 100 100 100 100 100 100 100 100 100 84 91 99
5 35 6 5 5 11 78 100 100 100 100 100 100 100 100 100 100 100 100 100 100 100 100 100 100 100 100 100 100 100 100 100 100 100 100 100 100 100 100 100 98 98 90
26 5 5 5 5 5 29 100 100 100 100 100 100 100 100 100 100 100 100 100 100 100 100 100 100 100 100 100 100 100 100 100 100 100 100 100 100 100 100 100 100 100 99
8 5 34 36 10 17 93 100 100 100 100 100 100 100 100 100 100 100 100 100 100 100 100 100 97 100 100 100 100 100 100 100 100 100 100 100 100 100 100 100 100 100 100
5 34 65 93 5 64 100 100 100 100 100 100 100 100 100 100 100 100 100 100 100 100 100 100 98 98 100 100 100 100 100 100 100 100 100 100 100 100 100 100 100 100 100
5 66 84 59 6 60 100 100 100 100 100 100 100 100 100 100 100 100 100 100 100 100 100 100 100 100 100 100 98 100 100 100 100 100 100 100 98 96 100 100 97 93 100
25 80 88 35 54 61 100 100 100 100 100 100 100 100 100 100 100 100 100 100 100 100 100 100 100 100 100 100 100 100 100 100 100 99 100 100 100 99 99 82 80 88 92
5 37 100 94 88 91 100 100 100 100 100 100 100 100 100 100 100 100 100 100 100 100 100 100 100 100 100 100 100 100 100 100 100 100 100 100 100 100 97 27 26 84 96
5 82 100 99 87 100 100 100 100 100 100 100 100 100 100 100 100 100 100 100 100 100 100 100 100 100 100 100 100 100 100 100 100 100 100 96 81 100 100 100 100 98 94
9 89 100 100 98 100 100 100 100 100 100 100 100 100 100 100 100 100 100 100 100 100 100 100 100 100 100 100 100 99 100 100 100 100 100 100 100 100 100 100 83 100 74
5 53 94 100 100 100 100 100 100 100 100 100 100 100 100 100 100 100 100 100 100 100 99 99 100 99 100 96 43 6 5 13 19 60 100 100 100 100 100 100 100 100 97
7 7 61 98 100 100 100 100 100 100 100 100 100 100 100 100 100 100 100 100 100 100 100 100 100 100 100 100 100 90 86 75 93 69 44 24 5 5 36 79 95 100 100
58 65 69 82 96 99 100 100 100 100 100 100 100 100 100 100 100 100 100 100 100 100 100 100 100 100 100 98 90 87 64 66 60 97 94 86 55 5 38 20 25 5 5
84 100 93 100 86 100 100 100 100 100 100 100 100 100 100 100 100 100 100 100 97 98 100 91 98 99 100 100 100 96 97 97 86 100 100 100 100 96 66 78 88 84 60